| time (UTC) | temp C | wind direction | speed KPH | gust KPH | rain 1hr cm | rain 24hr cm | rain mn cm | humidity % | barometer mb |
| 20260902113431 | 22 | 355 | 1.6 | 4.8 | 0.00 | 0.00 | 0.00 | 90 | 1018.5 |
| 20260902113318 | 22 | 355 | 0.0 | 3.2 | 0.00 | 0.00 | 0.00 | 90 | 1018.5 |
| 20260902113252 | 22 | 355 | 0.0 | 3.2 | 0.00 | 0.00 | 0.00 | 90 | 1018.5 |
| 20260902113025 | 22 | 355 | 0.0 | 0.0 | 0.00 | 0.00 | 0.00 | 91 | 1018.6 |
| 20260902112931 | 22 | 355 | 0.0 | 0.0 | 0.00 | 0.00 | 0.00 | 91 | 1018.6 |
| 20260902112836 | 22 | 355 | 0.0 | 1.6 | 0.00 | 0.00 | 0.00 | 91 | 1018.6 |
| 20260902112721 | 22 | 355 | 0.0 | 3.2 | 0.00 | 0.00 | 0.00 | 91 | 1018.6 |
| 20260902112628 | 22 | 355 | 0.0 | 3.2 | 0.00 | 0.00 | 0.00 | 91 | 1018.6 |
| 20260902112520 | 22 | 355 | 0.0 | 3.2 | 0.00 | 0.00 | 0.00 | 91 | 1018.6 |
| 20260902112426 | 22 | 355 | 0.0 | 3.2 | 0.00 | 0.00 | 0.00 | 91 | 1018.6 |
| 20260902112334 | 22 | 355 | 0.0 | 3.2 | 0.00 | 0.00 | 0.00 | 91 | 1018.6 |
| 20260902112220 | 22 | 355 | 0.0 | 3.2 | 0.00 | 0.00 | 0.00 | 91 | 1018.7 |
| 20260902112127 | 22 | 355 | 0.0 | 3.2 | 0.00 | 0.00 | 0.00 | 91 | 1018.6 |
| 20260902112017 | 22 | 355 | 1.6 | 3.2 | 0.00 | 0.00 | 0.00 | 91 | 1018.6 |
| 20260902111924 | 22 | 355 | 1.6 | 3.2 | 0.00 | 0.00 | 0.00 | 91 | 1018.5 |
| 20260902111832 | 22 | 355 | 1.6 | 3.2 | 0.00 | 0.00 | 0.00 | 91 | 1018.4 |
| 20260902111801 | 22 | 355 | 1.6 | 3.2 | 0.00 | 0.00 | 0.00 | 91 | 1018.4 |
| 20260902111517 | 22 | 355 | 1.6 | 3.2 | 0.00 | 0.00 | 0.00 | 91 | 1018.4 |
| 20260902111424 | 22 | 355 | 1.6 | 3.2 | 0.00 | 0.00 | 0.00 | 91 | 1018.5 |
| 20260902111330 | 22 | 355 | 1.6 | 3.2 | 0.00 | 0.00 | 0.00 | 91 | 1018.5 |
| 20260902111219 | 22 | 355 | 1.6 | 3.2 | 0.00 | 0.00 | 0.00 | 91 | 1018.5 |
| 20260902111146 | 22 | 355 | 1.6 | 3.2 | 0.00 | 0.00 | 0.00 | 91 | 1018.4 |
| 20260902111033 | 22 | 355 | 1.6 | 3.2 | 0.00 | 0.00 | 0.00 | 91 | 1018.5 |
| 20260902110940 | 22 | 355 | 1.6 | 3.2 | 0.00 | 0.00 | 0.00 | 91 | 1018.4 |
| 20260902110830 | 22 | 355 | 1.6 | 3.2 | 0.00 | 0.00 | 0.00 | 91 | 1018.4 |
| 20260902110736 | 22 | 355 | 1.6 | 4.8 | 0.00 | 0.00 | 0.00 | 91 | 1018.5 |
| 20260902110621 | 22 | 355 | 1.6 | 4.8 | 0.00 | 0.00 | 0.00 | 90 | 1018.5 |
| 20260902110529 | 22 | 355 | 1.6 | 4.8 | 0.00 | 0.00 | 0.00 | 90 | 1018.4 |
| 20260902110417 | 22 | 355 | 1.6 | 4.8 | 0.00 | 0.00 | 0.00 | 91 | 1018.4 |
| 20260902110343 | 22 | 355 | 1.6 | 4.8 | 0.00 | 0.00 | 0.00 | 91 | 1018.5 |
| 20260902110317 | 22 | 355 | 1.6 | 4.8 | 0.00 | 0.00 | 0.00 | 91 | 1018.5 |
| 20260902110029 | 22 | 355 | 3.2 | 4.8 | 0.00 | 0.00 | 0.00 | 91 | 1018.4 |
| 20260902105936 | 22 | 355 | 3.2 | 4.8 | 0.00 | 0.00 | 0.00 | 91 | 1018.5 |
| 20260902105822 | 22 | 355 | 3.2 | 4.8 | 0.00 | 0.00 | 0.00 | 91 | 1018.3 |
| 20260902105730 | 22 | 355 | 3.2 | 4.8 | 0.00 | 0.00 | 0.00 | 91 | 1018.4 |
| 20260902105621 | 22 | 355 | 3.2 | 4.8 | 0.00 | 0.00 | 0.00 | 91 | 1018.4 |
| 20260902105530 | 22 | 355 | 3.2 | 4.8 | 0.00 | 0.00 | 0.00 | 91 | 1018.4 |
| 20260902105436 | 22 | 355 | 3.2 | 4.8 | 0.00 | 0.00 | 0.00 | 90 | 1018.4 |
| 20260902105323 | 22 | 355 | 3.2 | 4.8 | 0.00 | 0.00 | 0.00 | 90 | 1018.5 |
| 20260902105229 | 22 | 355 | 3.2 | 4.8 | 0.00 | 0.00 | 0.00 | 90 | 1018.4 |
| 20260902105119 | 22 | 355 | 3.2 | 3.2 | 0.00 | 0.00 | 0.00 | 90 | 1018.4 |
| 20260902105026 | 22 | 355 | 1.6 | 3.2 | 0.00 | 0.00 | 0.00 | 90 | 1018.4 |
| 20260902104953 | 22 | 355 | 1.6 | 4.8 | 0.00 | 0.00 | 0.00 | 90 | 1018.4 |
| 20260902104809 | 22 | 355 | 1.6 | 4.8 | 0.00 | 0.00 | 0.00 | 90 | 1018.2 |
| 20260902104527 | 22 | 355 | 3.2 | 4.8 | 0.00 | 0.00 | 0.00 | 90 | 1018.3 |
| 20260902104435 | 22 | 355 | 3.2 | 4.8 | 0.00 | 0.00 | 0.00 | 90 | 1018.3 |
| 20260902104323 | 22 | 355 | 3.2 | 4.8 | 0.00 | 0.00 | 0.00 | 90 | 1018.3 |
| 20260902104229 | 22 | 355 | 3.2 | 4.8 | 0.00 | 0.00 | 0.00 | 90 | 1018.2 |
| 20260902104117 | 22 | 355 | 3.2 | 4.8 | 0.00 | 0.00 | 0.00 | 90 | 1018.3 |
| 20260902104025 | 22 | 355 | 3.2 | 4.8 | 0.00 | 0.00 | 0.00 | 90 | 1018.3 |
| 20260902103936 | 22 | 355 | 3.2 | 4.8 | 0.00 | 0.00 | 0.00 | 90 | 1018.3 |
| 20260902103822 | 22 | 355 | 3.2 | 4.8 | 0.00 | 0.00 | 0.00 | 90 | 1018.3 |
| 20260902103729 | 22 | 355 | 1.6 | 4.8 | 0.00 | 0.00 | 0.00 | 89 | 1018.3 |
| 20260902103616 | 22 | 355 | 0.0 | 0.0 | 0.00 | 0.00 | 0.00 | 90 | 1018.3 |
| 20260902103523 | 22 | 355 | 0.0 | 0.0 | 0.00 | 0.00 | 0.00 | 90 | 1018.2 |
| 20260902103434 | 22 | 355 | 0.0 | 0.0 | 0.00 | 0.00 | 0.00 | 90 | 1018.2 |
| 20260902103340 | 22 | 355 | 0.0 | 0.0 | 0.00 | 0.00 | 0.00 | 89 | 1018.2 |
| 20260902103310 | 22 | 355 | 0.0 | 0.0 | 0.00 | 0.00 | 0.00 | 89 | 1018.2 |
| 20260902103022 | 22 | 355 | 0.0 | 0.0 | 0.00 | 0.00 | 0.00 | 90 | 1018.2 |
| 20260902102928 | 22 | 355 | 0.0 | 0.0 | 0.00 | 0.00 | 0.00 | 90 | 1018.1 |
| 20260902102818 | 22 | 355 | 0.0 | 0.0 | 0.00 | 0.00 | 0.00 | 90 | 1018.1 |
| 20260902102724 | 22 | 355 | 0.0 | 0.0 | 0.00 | 0.00 | 0.00 | 90 | 1018.1 |
| 20260902102651 | 22 | 355 | 0.0 | 0.0 | 0.00 | 0.00 | 0.00 | 90 | 1018.1 |
| 20260902102557 | 22 | 355 | 0.0 | 0.0 | 0.00 | 0.00 | 0.00 | 90 | 1018.1 |
| 20260902102442 | 22 | 355 | 0.0 | 0.0 | 0.00 | 0.00 | 0.00 | 90 | 1018.0 |
| 20260902102327 | 22 | 355 | 0.0 | 0.0 | 0.00 | 0.00 | 0.00 | 90 | 1018.1 |
| 20260902102217 | 22 | 355 | 0.0 | 0.0 | 0.00 | 0.00 | 0.00 | 90 | 1018.0 |
| 20260902102124 | 22 | 355 | 0.0 | 0.0 | 0.00 | 0.00 | 0.00 | 90 | 1018.1 |
| 20260902102031 | 22 | 355 | 0.0 | 0.0 | 0.00 | 0.00 | 0.00 | 90 | 1018.0 |
| 20260902101919 | 22 | 355 | 0.0 | 0.0 | 0.00 | 0.00 | 0.00 | 90 | 1018.1 |
| 20260902101801 | 22 | 355 | 0.0 | 0.0 | 0.00 | 0.00 | 0.00 | 90 | 1018.0 |
| 20260902101535 | 22 | 355 | 0.0 | 0.0 | 0.00 | 0.00 | 0.00 | 90 | 1018.0 |
| 20260902101423 | 22 | 355 | 0.0 | 0.0 | 0.00 | 0.00 | 0.00 | 90 | 1018.1 |
| 20260902101331 | 22 | 355 | 0.0 | 0.0 | 0.00 | 0.00 | 0.00 | 90 | 1018.1 |
| 20260902101217 | 22 | 355 | 0.0 | 0.0 | 0.00 | 0.00 | 0.00 | 89 | 1018.1 |
| 20260902101128 | 22 | 355 | 0.0 | 0.0 | 0.00 | 0.00 | 0.00 | 89 | 1018.1 |
| 20260902101036 | 22 | 355 | 0.0 | 0.0 | 0.00 | 0.00 | 0.00 | 89 | 1018.1 |
| 20260902100923 | 22 | 355 | 0.0 | 0.0 | 0.00 | 0.00 | 0.00 | 89 | 1018.0 |
| 20260902100830 | 22 | 355 | 0.0 | 0.0 | 0.00 | 0.00 | 0.00 | 89 | 1018.1 |
| 20260902100717 | 22 | 355 | 0.0 | 0.0 | 0.00 | 0.00 | 0.00 | 90 | 1018.0 |
| 20260902100624 | 22 | 355 | 0.0 | 0.0 | 0.00 | 0.00 | 0.00 | 90 | 1018.1 |
| 20260902100516 | 22 | 355 | 0.0 | 0.0 | 0.00 | 0.00 | 0.00 | 90 | 1018.1 |
| 20260902100445 | 22 | 355 | 0.0 | 0.0 | 0.00 | 0.00 | 0.00 | 90 | 1018.0 |
| 20260902100351 | 22 | 355 | 0.0 | 0.0 | 0.00 | 0.00 | 0.00 | 90 | 1018.1 |
| 20260902100300 | 22 | 355 | 0.0 | 0.0 | 0.00 | 0.00 | 0.00 | 90 | 1018.1 |
| 20260902100053 | 22 | 355 | 0.0 | 0.0 | 0.00 | 0.00 | 0.00 | 90 | 1018.0 |
| 20260902095923 | 22 | 355 | 0.0 | 0.0 | 0.00 | 0.00 | 0.00 | 90 | 1018.0 |
| 20260902095830 | 22 | 355 | 0.0 | 0.0 | 0.00 | 0.00 | 0.00 | 90 | 1018.0 |
| 20260902095717 | 22 | 355 | 0.0 | 0.0 | 0.00 | 0.00 | 0.00 | 89 | 1018.0 |
| 20260902095624 | 22 | 355 | 0.0 | 0.0 | 0.00 | 0.00 | 0.00 | 89 | 1018.0 |
| 20260902095531 | 22 | 355 | 0.0 | 0.0 | 0.00 | 0.00 | 0.00 | 89 | 1018.1 |
| 20260902095418 | 22 | 355 | 0.0 | 0.0 | 0.00 | 0.00 | 0.00 | 90 | 1018.0 |
| 20260902095328 | 22 | 355 | 0.0 | 0.0 | 0.00 | 0.00 | 0.00 | 90 | 1018.0 |
| 20260902095236 | 22 | 355 | 0.0 | 0.0 | 0.00 | 0.00 | 0.00 | 90 | 1018.0 |
| 20260902095122 | 22 | 355 | 0.0 | 0.0 | 0.00 | 0.00 | 0.00 | 90 | 1017.9 |
| 20260902095030 | 22 | 355 | 0.0 | 0.0 | 0.00 | 0.00 | 0.00 | 90 | 1018.0 |
| 20260902094918 | 22 | 355 | 0.0 | 0.0 | 0.00 | 0.00 | 0.00 | 90 | 1018.0 |
| 20260902094828 | 22 | 355 | 0.0 | 0.0 | 0.00 | 0.00 | 0.00 | 90 | 1017.9 |
| 20260902094800 | 22 | 355 | 0.0 | 0.0 | 0.00 | 0.00 | 0.00 | 90 | 1017.9 |
| 20260902094533 | 22 | 355 | 0.0 | 0.0 | 0.00 | 0.00 | 0.00 | 89 | 1017.9 |
| 20260902094420 | 22 | 355 | 0.0 | 0.0 | 0.00 | 0.00 | 0.00 | 89 | 1017.8 |
| 20260902094347 | 22 | 355 | 0.0 | 0.0 | 0.00 | 0.00 | 0.00 | 89 | 1017.9 |
| 20260902094253 | 22 | 355 | 0.0 | 0.0 | 0.00 | 0.00 | 0.00 | 89 | 1017.8 |
| 20260902094143 | 22 | 355 | 0.0 | 0.0 | 0.00 | 0.00 | 0.00 | 89 | 1017.8 |
| 20260902094028 | 22 | 355 | 0.0 | 0.0 | 0.00 | 0.00 | 0.00 | 89 | 1017.8 |
| 20260902093935 | 22 | 355 | 0.0 | 0.0 | 0.00 | 0.00 | 0.00 | 89 | 1017.8 |
| 20260902093823 | 22 | 355 | 0.0 | 0.0 | 0.00 | 0.00 | 0.00 | 89 | 1017.9 |
| 20260902093730 | 22 | 355 | 0.0 | 0.0 | 0.00 | 0.00 | 0.00 | 89 | 1017.8 |
| 20260902093637 | 23 | 355 | 0.0 | 1.6 | 0.00 | 0.00 | 0.00 | 89 | 1017.9 |
| 20260902093527 | 23 | 355 | 0.0 | 1.6 | 0.00 | 0.00 | 0.00 | 89 | 1017.8 |
| 20260902093453 | 23 | 355 | 0.0 | 1.6 | 0.00 | 0.00 | 0.00 | 89 | 1017.9 |
| 20260902093319 | 23 | 355 | 0.0 | 3.2 | 0.00 | 0.00 | 0.00 | 90 | 1017.9 |
| 20260902093251 | 23 | 355 | 0.0 | 3.2 | 0.00 | 0.00 | 0.00 | 90 | 1017.9 |
| 20260902093022 | 23 | 355 | 0.0 | 3.2 | 0.00 | 0.00 | 0.00 | 90 | 1017.8 |
| 20260902092931 | 23 | 355 | 0.0 | 3.2 | 0.00 | 0.00 | 0.00 | 90 | 1017.9 |
| 20260902092816 | 23 | 355 | 0.0 | 3.2 | 0.00 | 0.00 | 0.00 | 90 | 1017.9 |
| 20260902092723 | 23 | 355 | 1.6 | 3.2 | 0.00 | 0.00 | 0.00 | 90 | 1017.9 |
| 20260902092628 | 23 | 355 | 1.6 | 3.2 | 0.00 | 0.00 | 0.00 | 90 | 1017.8 |
| 20260902092535 | 23 | 355 | 1.6 | 3.2 | 0.00 | 0.00 | 0.00 | 90 | 1017.7 |
| 20260902092426 | 23 | 355 | 1.6 | 3.2 | 0.00 | 0.00 | 0.00 | 90 | 1017.7 |
| 20260902092334 | 23 | 355 | 1.6 | 3.2 | 0.00 | 0.00 | 0.00 | 90 | 1017.8 |
| 20260902092219 | 23 | 355 | 1.6 | 3.2 | 0.00 | 0.00 | 0.00 | 90 | 1017.7 |
| 20260902092127 | 23 | 355 | 1.6 | 3.2 | 0.00 | 0.00 | 0.00 | 90 | 1017.7 |
| 20260902092033 | 23 | 355 | 1.6 | 3.2 | 0.00 | 0.00 | 0.00 | 90 | 1017.7 |
| 20260902091920 | 23 | 355 | 1.6 | 3.2 | 0.00 | 0.00 | 0.00 | 90 | 1017.7 |
| 20260902091852 | 23 | 355 | 0.0 | 3.2 | 0.00 | 0.00 | 0.00 | 90 | 1017.7 |
| 20260902091824 | 23 | 355 | 0.0 | 1.6 | 0.00 | 0.00 | 0.00 | 90 | 1017.7 |
| 20260902091518 | 23 | 355 | 0.0 | 3.2 | 0.00 | 0.00 | 0.00 | 90 | 1017.6 |
| 20260902091426 | 23 | 355 | 0.0 | 3.2 | 0.00 | 0.00 | 0.00 | 90 | 1017.6 |
| 20260902091352 | 23 | 355 | 0.0 | 3.2 | 0.00 | 0.00 | 0.00 | 90 | 1017.6 |
| 20260902091222 | 23 | 355 | 1.6 | 3.2 | 0.00 | 0.00 | 0.00 | 89 | 1017.6 |
| 20260902091129 | 23 | 355 | 1.6 | 3.2 | 0.00 | 0.00 | 0.00 | 89 | 1017.6 |
| 20260902091017 | 23 | 355 | 1.6 | 3.2 | 0.00 | 0.00 | 0.00 | 89 | 1017.6 |
| 20260902090923 | 23 | 355 | 1.6 | 3.2 | 0.00 | 0.00 | 0.00 | 89 | 1017.6 |
| 20260902090851 | 23 | 355 | 1.6 | 3.2 | 0.00 | 0.00 | 0.00 | 89 | 1017.5 |
| 20260902090717 | 23 | 355 | 1.6 | 3.2 | 0.00 | 0.00 | 0.00 | 88 | 1017.5 |
| 20260902090628 | 23 | 355 | 1.6 | 3.2 | 0.00 | 0.00 | 0.00 | 88 | 1017.6 |
| 20260902090555 | 23 | 355 | 1.6 | 3.2 | 0.00 | 0.00 | 0.00 | 88 | 1017.6 |
| 20260902090440 | 23 | 355 | 1.6 | 3.2 | 0.00 | 0.00 | 0.00 | 89 | 1017.5 |
| 20260902090345 | 23 | 355 | 1.6 | 3.2 | 0.00 | 0.00 | 0.00 | 89 | 1017.5 |
| 20260902090318 | 23 | 355 | 1.6 | 3.2 | 0.00 | 0.00 | 0.00 | 89 | 1017.5 |
| 20260902090050 | 23 | 355 | 0.0 | 3.2 | 0.00 | 0.00 | 0.00 | 89 | 1017.6 |
| 20260902085920 | 23 | 355 | 0.0 | 1.6 | 0.00 | 0.00 | 0.00 | 89 | 1017.5 |
| 20260902085846 | 23 | 355 | 0.0 | 1.6 | 0.00 | 0.00 | 0.00 | 89 | 1017.5 |
| 20260902085752 | 23 | 355 | 0.0 | 1.6 | 0.00 | 0.00 | 0.00 | 89 | 1017.5 |
| 20260902085617 | 23 | 355 | 0.0 | 1.6 | 0.00 | 0.00 | 0.00 | 89 | 1017.4 |
| 20260902085524 | 23 | 355 | 0.0 | 1.6 | 0.00 | 0.00 | 0.00 | 89 | 1017.5 |
| 20260902085450 | 23 | 355 | 0.0 | 1.6 | 0.00 | 0.00 | 0.00 | 89 | 1017.5 |
| 20260902085318 | 23 | 355 | 0.0 | 1.6 | 0.00 | 0.00 | 0.00 | 89 | 1017.4 |
| 20260902085230 | 23 | 355 | 0.0 | 1.6 | 0.00 | 0.00 | 0.00 | 89 | 1017.4 |
| 20260902085117 | 23 | 355 | 0.0 | 3.2 | 0.00 | 0.00 | 0.00 | 90 | 1017.5 |
| 20260902085024 | 23 | 355 | 0.0 | 3.2 | 0.00 | 0.00 | 0.00 | 90 | 1017.4 |
| 20260902084930 | 23 | 355 | 0.0 | 3.2 | 0.00 | 0.00 | 0.00 | 89 | 1017.5 |
| 20260902084816 | 23 | 355 | 0.0 | 3.2 | 0.00 | 0.00 | 0.00 | 89 | 1017.5 |
| 20260902084751 | 23 | 355 | 0.0 | 3.2 | 0.00 | 0.00 | 0.00 | 89 | 1017.5 |
| 20260902084523 | 23 | 355 | 0.0 | 3.2 | 0.00 | 0.00 | 0.00 | 89 | 1017.5 |
| 20260902084430 | 23 | 355 | 1.6 | 3.2 | 0.00 | 0.00 | 0.00 | 89 | 1017.4 |
| 20260902084336 | 23 | 355 | 1.6 | 3.2 | 0.00 | 0.00 | 0.00 | 89 | 1017.4 |
| 20260902084224 | 23 | 355 | 1.6 | 3.2 | 0.00 | 0.00 | 0.00 | 89 | 1017.4 |
| 20260902084116 | 23 | 355 | 1.6 | 4.8 | 0.00 | 0.00 | 0.00 | 88 | 1017.4 |
| 20260902084022 | 23 | 355 | 1.6 | 4.8 | 0.00 | 0.00 | 0.00 | 88 | 1017.4 |
| 20260902083931 | 23 | 355 | 1.6 | 4.8 | 0.00 | 0.00 | 0.00 | 88 | 1017.4 |
| 20260902083818 | 23 | 355 | 1.6 | 4.8 | 0.00 | 0.00 | 0.00 | 88 | 1017.3 |
| 20260902083726 | 23 | 355 | 1.6 | 4.8 | 0.00 | 0.00 | 0.00 | 88 | 1017.4 |
| 20260902083636 | 23 | 355 | 1.6 | 4.8 | 0.00 | 0.00 | 0.00 | 87 | 1017.4 |
| 20260902083541 | 23 | 355 | 3.2 | 4.8 | 0.00 | 0.00 | 0.00 | 87 | 1017.4 |
| 20260902083428 | 23 | 355 | 3.2 | 4.8 | 0.00 | 0.00 | 0.00 | 87 | 1017.3 |
| 20260902083307 | 23 | 355 | 3.2 | 4.8 | 0.00 | 0.00 | 0.00 | 87 | 1017.4 |
| 20260902083023 | 23 | 355 | 3.2 | 4.8 | 0.00 | 0.00 | 0.00 | 87 | 1017.2 |
| 20260902082930 | 23 | 355 | 3.2 | 4.8 | 0.00 | 0.00 | 0.00 | 87 | 1017.3 |
| 20260902082836 | 23 | 355 | 3.2 | 4.8 | 0.00 | 0.00 | 0.00 | 87 | 1017.3 |
| 20260902082723 | 23 | 355 | 3.2 | 4.8 | 0.00 | 0.00 | 0.00 | 88 | 1017.3 |
| 20260902082630 | 23 | 355 | 3.2 | 4.8 | 0.00 | 0.00 | 0.00 | 88 | 1017.2 |
| 20260902082520 | 23 | 355 | 3.2 | 4.8 | 0.00 | 0.00 | 0.00 | 88 | 1017.2 |
| 20260902082428 | 23 | 355 | 3.2 | 3.2 | 0.00 | 0.00 | 0.00 | 88 | 1017.2 |
| 20260902082334 | 23 | 355 | 3.2 | 4.8 | 0.00 | 0.00 | 0.00 | 88 | 1017.2 |
| 20260902082222 | 23 | 355 | 3.2 | 4.8 | 0.00 | 0.00 | 0.00 | 88 | 1017.2 |
| 20260902082130 | 23 | 355 | 1.6 | 4.8 | 0.00 | 0.00 | 0.00 | 88 | 1017.3 |
| 20260902082017 | 23 | 355 | 1.6 | 4.8 | 0.00 | 0.00 | 0.00 | 88 | 1017.4 |
| 20260902081928 | 23 | 355 | 1.6 | 4.8 | 0.00 | 0.00 | 0.00 | 88 | 1017.3 |
| 20260902081856 | 23 | 355 | 3.2 | 4.8 | 0.00 | 0.00 | 0.00 | 88 | 1017.3 |
| 20260902081806 | 23 | 355 | 3.2 | 4.8 | 0.00 | 0.00 | 0.00 | 88 | 1017.3 |
| 20260902081518 | 23 | 355 | 3.2 | 6.4 | 0.00 | 0.00 | 0.00 | 89 | 1017.3 |
| 20260902081425 | 23 | 5 | 3.2 | 6.4 | 0.00 | 0.00 | 0.00 | 88 | 1017.3 |
| 20260902081316 | 23 | 5 | 4.8 | 6.4 | 0.00 | 0.00 | 0.00 | 88 | 1017.3 |
| 20260902081245 | 23 | 5 | 3.2 | 6.4 | 0.00 | 0.00 | 0.00 | 88 | 1017.2 |
| 20260902081130 | 23 | 5 | 4.8 | 6.4 | 0.00 | 0.00 | 0.00 | 88 | 1017.2 |
| 20260902081018 | 23 | 12 | 4.8 | 6.4 | 0.00 | 0.00 | 0.00 | 88 | 1017.2 |
| 20260902080924 | 23 | 9 | 4.8 | 6.4 | 0.00 | 0.00 | 0.00 | 88 | 1017.2 |
| 20260902080830 | 23 | 12 | 3.2 | 6.4 | 0.00 | 0.00 | 0.00 | 88 | 1017.2 |
| 20260902080721 | 23 | 15 | 3.2 | 4.8 | 0.00 | 0.00 | 0.00 | 88 | 1017.2 |
| 20260902080628 | 23 | 5 | 3.2 | 4.8 | 0.00 | 0.00 | 0.00 | 88 | 1017.2 |
| 20260902080534 | 23 | 355 | 3.2 | 4.8 | 0.00 | 0.00 | 0.00 | 88 | 1017.2 |
| 20260902080422 | 23 | 355 | 3.2 | 4.8 | 0.00 | 0.00 | 0.00 | 88 | 1017.2 |
| 20260902080330 | 23 | 355 | 3.2 | 4.8 | 0.00 | 0.00 | 0.00 | 88 | 1017.2 |
| 20260902080305 | 23 | 355 | 3.2 | 6.4 | 0.00 | 0.00 | 0.00 | 88 | 1017.2 |
| 20260902080017 | 23 | 355 | 1.6 | 6.4 | 0.00 | 0.00 | 0.00 | 88 | 1017.1 |
| 20260902075926 | 23 | 355 | 3.2 | 6.4 | 0.00 | 0.00 | 0.00 | 88 | 1017.1 |
| 20260902075833 | 23 | 355 | 3.2 | 6.4 | 0.00 | 0.00 | 0.00 | 88 | 1017.2 |
| 20260902075740 | 23 | 355 | 3.2 | 6.4 | 0.00 | 0.00 | 0.00 | 88 | 1017.1 |
| 20260902075646 | 23 | 355 | 3.2 | 6.4 | 0.00 | 0.00 | 0.00 | 88 | 1017.2 |
| 20260902075556 | 23 | 355 | 3.2 | 6.4 | 0.00 | 0.00 | 0.00 | 88 | 1017.2 |
| 20260902075422 | 23 | 355 | 4.8 | 6.4 | 0.00 | 0.00 | 0.00 | 88 | 1017.2 |
| 20260902075328 | 23 | 5 | 4.8 | 6.4 | 0.00 | 0.00 | 0.00 | 88 | 1017.1 |
| 20260902075216 | 23 | 355 | 4.8 | 6.4 | 0.00 | 0.00 | 0.00 | 88 | 1017.1 |
| 20260902075144 | 23 | 14 | 4.8 | 6.4 | 0.00 | 0.00 | 0.00 | 88 | 1017.1 |
| 20260902075031 | 23 | 29 | 4.8 | 6.4 | 0.00 | 0.00 | 0.00 | 87 | 1017.2 |
| 20260902074921 | 23 | 9 | 3.2 | 4.8 | 0.00 | 0.00 | 0.00 | 87 | 1017.1 |
| 20260902074827 | 23 | 26 | 0.0 | 3.2 | 0.00 | 0.00 | 0.00 | 87 | 1017.0 |
| 20260902074757 | 23 | 26 | 0.0 | 3.2 | 0.00 | 0.00 | 0.00 | 87 | 1017.0 |
| 20260902074530 | 23 | 308 | 0.0 | 0.0 | 0.00 | 0.00 | 0.00 | 88 | 1017.0 |
| 20260902074416 | 23 | 286 | 0.0 | 0.0 | 0.00 | 0.00 | 0.00 | 88 | 1017.0 |
| 20260902074328 | 23 | 286 | 0.0 | 0.0 | 0.00 | 0.00 | 0.00 | 88 | 1017.0 |
| 20260902074234 | 23 | 286 | 0.0 | 0.0 | 0.00 | 0.00 | 0.00 | 88 | 1017.0 |
| 20260902074122 | 23 | 286 | 0.0 | 0.0 | 0.00 | 0.00 | 0.00 | 88 | 1017.0 |
| 20260902074028 | 23 | 286 | 0.0 | 0.0 | 0.00 | 0.00 | 0.00 | 88 | 1017.0 |
| 20260902073934 | 23 | 286 | 0.0 | 0.0 | 0.00 | 0.00 | 0.00 | 88 | 1016.9 |
| 20260902073842 | 23 | 286 | 0.0 | 0.0 | 0.00 | 0.00 | 0.00 | 88 | 1016.9 |
| 20260902073732 | 23 | 284 | 0.0 | 0.0 | 0.00 | 0.00 | 0.00 | 88 | 1016.9 |
| 20260902073619 | 23 | 283 | 0.0 | 0.0 | 0.00 | 0.00 | 0.00 | 88 | 1017.0 |
| 20260902073527 | 23 | 288 | 0.0 | 0.0 | 0.00 | 0.00 | 0.00 | 88 | 1016.9 |
| 20260902073435 | 23 | 273 | 0.0 | 0.0 | 0.00 | 0.00 | 0.00 | 88 | 1016.9 |
| 20260902073342 | 23 | 350 | 0.0 | 0.0 | 0.00 | 0.00 | 0.00 | 88 | 1016.8 |
| 20260902073255 | 23 | 350 | 0.0 | 0.0 | 0.00 | 0.00 | 0.00 | 88 | 1016.8 |
| 20260902073049 | 23 | 350 | 0.0 | 0.0 | 0.00 | 0.00 | 0.00 | 88 | 1016.8 |
| 20260902072935 | 23 | 350 | 0.0 | 0.0 | 0.00 | 0.00 | 0.00 | 88 | 1016.8 |
| 20260902072843 | 23 | 350 | 0.0 | 0.0 | 0.00 | 0.00 | 0.00 | 88 | 1016.9 |
| 20260902072750 | 23 | 350 | 0.0 | 0.0 | 0.00 | 0.00 | 0.00 | 88 | 1016.9 |
| 20260902072636 | 23 | 350 | 0.0 | 0.0 | 0.00 | 0.00 | 0.00 | 88 | 1016.9 |
| 20260902072522 | 23 | 350 | 0.0 | 0.0 | 0.00 | 0.00 | 0.00 | 88 | 1016.8 |
| 20260902072432 | 23 | 350 | 0.0 | 0.0 | 0.00 | 0.00 | 0.00 | 88 | 1017.0 |
| 20260902072318 | 23 | 350 | 0.0 | 0.0 | 0.00 | 0.00 | 0.00 | 88 | 1017.0 |
| 20260902072226 | 23 | 350 | 0.0 | 0.0 | 0.00 | 0.00 | 0.00 | 88 | 1016.9 |
| 20260902072132 | 23 | 350 | 0.0 | 0.0 | 0.00 | 0.00 | 0.00 | 88 | 1017.0 |
| 20260902072019 | 24 | 350 | 0.0 | 0.0 | 0.00 | 0.00 | 0.00 | 88 | 1017.0 |
| 20260902071931 | 24 | 350 | 0.0 | 0.0 | 0.00 | 0.00 | 0.00 | 88 | 1016.9 |
| 20260902071819 | 24 | 350 | 0.0 | 0.0 | 0.00 | 0.00 | 0.00 | 88 | 1016.9 |
| 20260902071750 | 23 | 350 | 0.0 | 0.0 | 0.00 | 0.00 | 0.00 | 88 | 1016.9 |
| 20260902071523 | 23 | 349 | 0.0 | 0.0 | 0.00 | 0.00 | 0.00 | 88 | 1016.9 |
| 20260902071429 | 23 | 350 | 0.0 | 0.0 | 0.00 | 0.00 | 0.00 | 88 | 1017.0 |
| 20260902071321 | 23 | 350 | 0.0 | 0.0 | 0.00 | 0.00 | 0.00 | 87 | 1017.0 |
| 20260902071228 | 23 | 349 | 0.0 | 0.0 | 0.00 | 0.00 | 0.00 | 87 | 1017.0 |
| 20260902071135 | 23 | 350 | 0.0 | 0.0 | 0.00 | 0.00 | 0.00 | 87 | 1017.0 |
| 20260902071043 | 23 | 350 | 0.0 | 0.0 | 0.00 | 0.00 | 0.00 | 87 | 1017.1 |
| 20260902070928 | 23 | 350 | 0.0 | 0.0 | 0.00 | 0.00 | 0.00 | 87 | 1017.1 |
| 20260902070821 | 23 | 350 | 0.0 | 0.0 | 0.00 | 0.00 | 0.00 | 86 | 1017.1 |
| 20260902070728 | 23 | 350 | 0.0 | 0.0 | 0.00 | 0.00 | 0.00 | 86 | 1017.1 |
| 20260902070635 | 23 | 350 | 0.0 | 0.0 | 0.00 | 0.00 | 0.00 | 86 | 1017.0 |
| 20260902070522 | 24 | 349 | 0.0 | 0.0 | 0.00 | 0.00 | 0.00 | 87 | 1017.1 |
| 20260902070429 | 24 | 350 | 0.0 | 0.0 | 0.00 | 0.00 | 0.00 | 87 | 1017.1 |
| 20260902070316 | 24 | 350 | 0.0 | 0.0 | 0.00 | 0.00 | 0.00 | 87 | 1017.2 |
| 20260902070251 | 24 | 350 | 0.0 | 0.0 | 0.00 | 0.00 | 0.00 | 87 | 1017.2 |
| 20260902070023 | 24 | 350 | 0.0 | 0.0 | 0.00 | 0.00 | 0.00 | 87 | 1017.1 |
| 20260902065928 | 24 | 350 | 0.0 | 0.0 | 0.00 | 0.00 | 0.00 | 87 | 1017.2 |
| 20260902065857 | 24 | 350 | 0.0 | 0.0 | 0.00 | 0.00 | 0.00 | 87 | 1017.2 |
| 20260902065742 | 24 | 350 | 0.0 | 0.0 | 0.00 | 0.00 | 0.00 | 87 | 1017.1 |
| 20260902065633 | 24 | 350 | 0.0 | 0.0 | 0.00 | 0.00 | 0.00 | 87 | 1017.2 |
| 20260902065520 | 24 | 325 | 0.0 | 0.0 | 0.00 | 0.00 | 0.00 | 86 | 1017.1 |
| 20260902065425 | 24 | 325 | 0.0 | 0.0 | 0.00 | 0.00 | 0.00 | 86 | 1017.1 |
| 20260902065333 | 24 | 325 | 0.0 | 0.0 | 0.00 | 0.00 | 0.00 | 86 | 1017.1 |
| 20260902065220 | 24 | 325 | 0.0 | 0.0 | 0.00 | 0.00 | 0.00 | 85 | 1017.2 |
| 20260902065128 | 24 | 325 | 0.0 | 0.0 | 0.00 | 0.00 | 0.00 | 85 | 1017.2 |
| 20260902065018 | 24 | 325 | 0.0 | 0.0 | 0.00 | 0.00 | 0.00 | 85 | 1017.2 |
| 20260902064924 | 24 | 325 | 0.0 | 0.0 | 0.00 | 0.00 | 0.00 | 85 | 1017.2 |
| 20260902064803 | 24 | 325 | 0.0 | 0.0 | 0.00 | 0.00 | 0.00 | 85 | 1017.2 |
| 20260902064521 | 24 | 325 | 0.0 | 0.0 | 0.00 | 0.00 | 0.00 | 85 | 1017.2 |
| 20260902064427 | 24 | 325 | 0.0 | 0.0 | 0.00 | 0.00 | 0.00 | 85 | 1017.3 |
| 20260902064334 | 24 | 325 | 0.0 | 0.0 | 0.00 | 0.00 | 0.00 | 85 | 1017.3 |
| 20260902064221 | 24 | 325 | 0.0 | 0.0 | 0.00 | 0.00 | 0.00 | 86 | 1017.3 |
| 20260902064127 | 24 | 325 | 0.0 | 0.0 | 0.00 | 0.00 | 0.00 | 86 | 1017.3 |
| 20260902064054 | 24 | 325 | 0.0 | 0.0 | 0.00 | 0.00 | 0.00 | 86 | 1017.4 |
| 20260902063924 | 24 | 325 | 0.0 | 0.0 | 0.00 | 0.00 | 0.00 | 86 | 1017.3 |
| 20260902063851 | 24 | 325 | 0.0 | 0.0 | 0.00 | 0.00 | 0.00 | 86 | 1017.4 |
| 20260902063717 | 24 | 325 | 0.0 | 0.0 | 0.00 | 0.00 | 0.00 | 86 | 1017.4 |
| 20260902063625 | 24 | 325 | 0.0 | 0.0 | 0.00 | 0.00 | 0.00 | 86 | 1017.4 |
| 20260902063531 | 24 | 325 | 0.0 | 0.0 | 0.00 | 0.00 | 0.00 | 86 | 1017.4 |
| 20260902063438 | 24 | 325 | 0.0 | 0.0 | 0.00 | 0.00 | 0.00 | 86 | 1017.4 |
| 20260902063326 | 24 | 325 | 0.0 | 0.0 | 0.00 | 0.00 | 0.00 | 86 | 1017.3 |
| 20260902063256 | 24 | 325 | 0.0 | 0.0 | 0.00 | 0.00 | 0.00 | 86 | 1017.3 |
| 20260902063030 | 24 | 325 | 0.0 | 0.0 | 0.00 | 0.00 | 0.00 | 86 | 1017.4 |
| 20260902062917 | 24 | 325 | 0.0 | 0.0 | 0.00 | 0.00 | 0.00 | 86 | 1017.4 |
| 20260902062823 | 24 | 325 | 0.0 | 0.0 | 0.00 | 0.00 | 0.00 | 86 | 1017.5 |
| 20260902062735 | 24 | 325 | 0.0 | 0.0 | 0.00 | 0.00 | 0.00 | 86 | 1017.4 |
| 20260902062622 | 25 | 325 | 0.0 | 0.0 | 0.00 | 0.00 | 0.00 | 86 | 1017.4 |
| 20260902062529 | 25 | 325 | 0.0 | 0.0 | 0.00 | 0.00 | 0.00 | 86 | 1017.5 |
| 20260902062416 | 24 | 325 | 0.0 | 0.0 | 0.00 | 0.00 | 0.00 | 86 | 1017.5 |
| 20260902062324 | 25 | 325 | 0.0 | 0.0 | 0.00 | 0.00 | 0.00 | 86 | 1017.4 |
| 20260902062234 | 25 | 325 | 0.0 | 0.0 | 0.00 | 0.00 | 0.00 | 86 | 1017.4 |
| 20260902062121 | 25 | 325 | 0.0 | 0.0 | 0.00 | 0.00 | 0.00 | 86 | 1017.4 |
| 20260902062048 | 25 | 325 | 0.0 | 0.0 | 0.00 | 0.00 | 0.00 | 86 | 1017.5 |
| 20260902061935 | 25 | 325 | 0.0 | 0.0 | 0.00 | 0.00 | 0.00 | 86 | 1017.5 |
| 20260902061822 | 25 | 325 | 0.0 | 0.0 | 0.00 | 0.00 | 0.00 | 86 | 1017.5 |
| 20260902061755 | 25 | 325 | 0.0 | 0.0 | 0.00 | 0.00 | 0.00 | 86 | 1017.5 |
| 20260902061549 | 25 | 325 | 0.0 | 0.0 | 0.00 | 0.00 | 0.00 | 86 | 1017.5 |
| 20260902061455 | 25 | 325 | 0.0 | 0.0 | 0.00 | 0.00 | 0.00 | 86 | 1017.5 |
| 20260902061400 | 25 | 325 | 0.0 | 0.0 | 0.00 | 0.00 | 0.00 | 86 | 1017.5 |
| 20260902061225 | 25 | 325 | 0.0 | 0.0 | 0.00 | 0.00 | 0.00 | 85 | 1017.6 |
| 20260902061150 | 25 | 325 | 0.0 | 0.0 | 0.00 | 0.00 | 0.00 | 85 | 1017.6 |
| 20260902061016 | 25 | 325 | 0.0 | 0.0 | 0.00 | 0.00 | 0.00 | 85 | 1017.5 |
| 20260902060924 | 25 | 325 | 0.0 | 0.0 | 0.00 | 0.00 | 0.00 | 85 | 1017.5 |
| 20260902060835 | 25 | 325 | 0.0 | 0.0 | 0.00 | 0.00 | 0.00 | 85 | 1017.5 |
| 20260902060722 | 25 | 325 | 0.0 | 0.0 | 0.00 | 0.00 | 0.00 | 84 | 1017.5 |
| 20260902060629 | 25 | 325 | 0.0 | 0.0 | 0.00 | 0.00 | 0.00 | 83 | 1017.5 |
| 20260902060535 | 25 | 325 | 0.0 | 0.0 | 0.00 | 0.00 | 0.00 | 83 | 1017.5 |
| 20260902060422 | 25 | 325 | 0.0 | 0.0 | 0.00 | 0.00 | 0.00 | 83 | 1017.5 |
| 20260902060303 | 25 | 325 | 0.0 | 0.0 | 0.00 | 0.00 | 0.00 | 83 | 1017.5 |
| 20260902060036 | 25 | 325 | 0.0 | 0.0 | 0.00 | 0.00 | 0.00 | 83 | 1017.5 |
| 20260902055922 | 25 | 325 | 0.0 | 0.0 | 0.00 | 0.00 | 0.00 | 83 | 1017.5 |
| 20260902055829 | 25 | 325 | 0.0 | 0.0 | 0.00 | 0.00 | 0.00 | 82 | 1017.5 |
| 20260902055739 | 25 | 325 | 0.0 | 0.0 | 0.00 | 0.00 | 0.00 | 82 | 1017.5 |
| 20260902055624 | 25 | 325 | 0.0 | 0.0 | 0.00 | 0.00 | 0.00 | 82 | 1017.6 |
| 20260902055532 | 25 | 325 | 0.0 | 0.0 | 0.00 | 0.00 | 0.00 | 82 | 1017.6 |
| 20260902055416 | 25 | 325 | 0.0 | 0.0 | 0.00 | 0.00 | 0.00 | 82 | 1017.6 |
| 20260902055323 | 25 | 325 | 0.0 | 0.0 | 0.00 | 0.00 | 0.00 | 82 | 1017.5 |
| 20260902055229 | 25 | 325 | 0.0 | 0.0 | 0.00 | 0.00 | 0.00 | 82 | 1017.7 |
| 20260902055120 | 25 | 325 | 0.0 | 0.0 | 0.00 | 0.00 | 0.00 | 82 | 1017.5 |
| 20260902055028 | 25 | 325 | 0.0 | 0.0 | 0.00 | 0.00 | 0.00 | 82 | 1017.6 |
| 20260902054936 | 25 | 325 | 0.0 | 0.0 | 0.00 | 0.00 | 0.00 | 81 | 1017.6 |
| 20260902054824 | 25 | 325 | 0.0 | 0.0 | 0.00 | 0.00 | 0.00 | 81 | 1017.6 |
| 20260902054758 | 25 | 325 | 0.0 | 0.0 | 0.00 | 0.00 | 0.00 | 81 | 1017.6 |
| 20260902054531 | 25 | 325 | 0.0 | 0.0 | 0.00 | 0.00 | 0.00 | 82 | 1017.6 |
| 20260902054417 | 25 | 325 | 0.0 | 0.0 | 0.00 | 0.00 | 0.00 | 83 | 1017.6 |
| 20260902054325 | 25 | 325 | 0.0 | 0.0 | 0.00 | 0.00 | 0.00 | 82 | 1017.5 |
| 20260902054234 | 25 | 325 | 0.0 | 0.0 | 0.00 | 0.00 | 0.00 | 82 | 1017.6 |
| 20260902054122 | 25 | 325 | 0.0 | 0.0 | 0.00 | 0.00 | 0.00 | 82 | 1017.6 |
| 20260902054032 | 25 | 325 | 0.0 | 0.0 | 0.00 | 0.00 | 0.00 | 82 | 1017.6 |
| 20260902053939 | 25 | 325 | 0.0 | 0.0 | 0.00 | 0.00 | 0.00 | 82 | 1017.6 |
| 20260902053825 | 25 | 325 | 0.0 | 0.0 | 0.00 | 0.00 | 0.00 | 82 | 1017.6 |
| 20260902053732 | 25 | 325 | 0.0 | 0.0 | 0.00 | 0.00 | 0.00 | 83 | 1017.6 |
| 20260902053619 | 25 | 325 | 0.0 | 0.0 | 0.00 | 0.00 | 0.00 | 83 | 1017.5 |
| 20260902053526 | 25 | 325 | 0.0 | 0.0 | 0.00 | 0.00 | 0.00 | 83 | 1017.6 |
| 20260902053416 | 25 | 325 | 0.0 | 0.0 | 0.00 | 0.00 | 0.00 | 83 | 1017.6 |
| 20260902053324 | 25 | 325 | 0.0 | 0.0 | 0.00 | 0.00 | 0.00 | 83 | 1017.6 |
| 20260902053255 | 25 | 325 | 0.0 | 0.0 | 0.00 | 0.00 | 0.00 | 83 | 1017.6 |
| 20260902053027 | 25 | 325 | 0.0 | 0.0 | 0.00 | 0.00 | 0.00 | 83 | 1017.7 |
| 20260902052940 | 25 | 325 | 0.0 | 0.0 | 0.00 | 0.00 | 0.00 | 83 | 1017.7 |
| 20260902052826 | 25 | 325 | 0.0 | 0.0 | 0.00 | 0.00 | 0.00 | 83 | 1017.7 |
| 20260902052732 | 25 | 325 | 0.0 | 0.0 | 0.00 | 0.00 | 0.00 | 83 | 1017.8 |
| 20260902052619 | 25 | 325 | 0.0 | 0.0 | 0.00 | 0.00 | 0.00 | 82 | 1017.9 |
| 20260902052527 | 25 | 325 | 0.0 | 0.0 | 0.00 | 0.00 | 0.00 | 82 | 1017.8 |
| 20260902052435 | 25 | 325 | 0.0 | 0.0 | 0.00 | 0.00 | 0.00 | 82 | 1017.8 |
| 20260902052327 | 25 | 325 | 0.0 | 0.0 | 0.00 | 0.00 | 0.00 | 82 | 1017.8 |
| 20260902052233 | 25 | 325 | 0.0 | 0.0 | 0.00 | 0.00 | 0.00 | 82 | 1017.6 |
| 20260902052120 | 25 | 325 | 0.0 | 0.0 | 0.00 | 0.00 | 0.00 | 81 | 1017.8 |
| 20260902052026 | 25 | 325 | 0.0 | 1.6 | 0.00 | 0.00 | 0.00 | 81 | 1017.8 |
| 20260902051932 | 25 | 325 | 0.0 | 1.6 | 0.00 | 0.00 | 0.00 | 81 | 1017.7 |
| 20260902051840 | 25 | 325 | 0.0 | 1.6 | 0.00 | 0.00 | 0.00 | 81 | 1017.7 |
| 20260902051753 | 25 | 325 | 0.0 | 1.6 | 0.00 | 0.00 | 0.00 | 81 | 1017.7 |
| 20260902051525 | 25 | 325 | 0.0 | 1.6 | 0.00 | 0.00 | 0.00 | 81 | 1017.7 |
| 20260902051433 | 25 | 325 | 0.0 | 1.6 | 0.00 | 0.00 | 0.00 | 81 | 1017.7 |
| 20260902051320 | 25 | 325 | 0.0 | 1.6 | 0.00 | 0.00 | 0.00 | 81 | 1017.7 |
| 20260902051228 | 25 | 325 | 0.0 | 1.6 | 0.00 | 0.00 | 0.00 | 82 | 1017.6 |
| 20260902051119 | 25 | 325 | 0.0 | 1.6 | 0.00 | 0.00 | 0.00 | 82 | 1017.6 |
| 20260902051025 | 25 | 325 | 0.0 | 1.6 | 0.00 | 0.00 | 0.00 | 82 | 1017.6 |
| 20260902050931 | 25 | 325 | 0.0 | 1.6 | 0.00 | 0.00 | 0.00 | 82 | 1017.6 |
| 20260902050838 | 25 | 325 | 0.0 | 1.6 | 0.00 | 0.00 | 0.00 | 82 | 1017.6 |
| 20260902050722 | 25 | 325 | 0.0 | 1.6 | 0.00 | 0.00 | 0.00 | 83 | 1017.7 |
| 20260902050629 | 25 | 325 | 0.0 | 1.6 | 0.00 | 0.00 | 0.00 | 83 | 1017.6 |
| 20260902050539 | 25 | 325 | 0.0 | 0.0 | 0.00 | 0.00 | 0.00 | 83 | 1017.7 |
| 20260902050425 | 25 | 325 | 0.0 | 0.0 | 0.00 | 0.00 | 0.00 | 83 | 1017.6 |
| 20260902050352 | 25 | 325 | 0.0 | 0.0 | 0.00 | 0.00 | 0.00 | 84 | 1017.6 |
| 20260902050301 | 25 | 325 | 0.0 | 0.0 | 0.00 | 0.00 | 0.00 | 84 | 1017.6 |
| 20260902050034 | 25 | 325 | 0.0 | 0.0 | 0.00 | 0.00 | 0.00 | 84 | 1017.7 |
| 20260902045926 | 25 | 325 | 0.0 | 0.0 | 0.00 | 0.00 | 0.00 | 84 | 1017.7 |
| 20260902045832 | 25 | 325 | 0.0 | 0.0 | 0.00 | 0.00 | 0.00 | 83 | 1017.7 |
| 20260902045718 | 25 | 325 | 0.0 | 0.0 | 0.00 | 0.00 | 0.00 | 83 | 1017.6 |
| 20260902045625 | 25 | 325 | 0.0 | 0.0 | 0.00 | 0.00 | 0.00 | 83 | 1017.7 |
| 20260902045530 | 25 | 325 | 0.0 | 0.0 | 0.00 | 0.00 | 0.00 | 83 | 1017.6 |
| 20260902045420 | 25 | 325 | 0.0 | 1.6 | 0.00 | 0.00 | 0.00 | 83 | 1017.6 |
| 20260902045328 | 25 | 325 | 0.0 | 1.6 | 0.00 | 0.00 | 0.00 | 83 | 1017.7 |
| 20260902045234 | 25 | 325 | 0.0 | 3.2 | 0.00 | 0.00 | 0.00 | 83 | 1017.5 |
| 20260902045141 | 25 | 325 | 0.0 | 3.2 | 0.00 | 0.00 | 0.00 | 83 | 1017.6 |
| 20260902045026 | 25 | 325 | 0.0 | 3.2 | 0.00 | 0.00 | 0.00 | 82 | 1017.6 |
| 20260902044933 | 25 | 325 | 0.0 | 3.2 | 0.00 | 0.00 | 0.00 | 82 | 1017.7 |
| 20260902044822 | 25 | 325 | 0.0 | 3.2 | 0.00 | 0.00 | 0.00 | 82 | 1017.6 |
| 20260902044753 | 25 | 325 | 0.0 | 3.2 | 0.00 | 0.00 | 0.00 | 81 | 1017.6 |
| 20260902044524 | 25 | 325 | 1.6 | 3.2 | 0.00 | 0.00 | 0.00 | 81 | 1017.7 |
| 20260902044432 | 25 | 325 | 1.6 | 3.2 | 0.00 | 0.00 | 0.00 | 81 | 1017.7 |
| 20260902044320 | 25 | 325 | 1.6 | 3.2 | 0.00 | 0.00 | 0.00 | 81 | 1017.6 |
| 20260902044230 | 25 | 325 | 1.6 | 3.2 | 0.00 | 0.00 | 0.00 | 81 | 1017.7 |
| 20260902044116 | 25 | 325 | 1.6 | 3.2 | 0.00 | 0.00 | 0.00 | 81 | 1017.6 |
| 20260902044024 | 25 | 325 | 1.6 | 3.2 | 0.00 | 0.00 | 0.00 | 81 | 1017.7 |
| 20260902043931 | 25 | 325 | 1.6 | 3.2 | 0.00 | 0.00 | 0.00 | 82 | 1017.7 |
| 20260902043817 | 25 | 325 | 1.6 | 3.2 | 0.00 | 0.00 | 0.00 | 82 | 1017.6 |
| 20260902043728 | 25 | 325 | 1.6 | 3.2 | 0.00 | 0.00 | 0.00 | 82 | 1017.7 |
| 20260902043634 | 26 | 325 | 1.6 | 3.2 | 0.00 | 0.00 | 0.00 | 83 | 1017.7 |
| 20260902043521 | 26 | 325 | 3.2 | 3.2 | 0.00 | 0.00 | 0.00 | 83 | 1017.7 |
| 20260902043449 | 26 | 325 | 1.6 | 3.2 | 0.00 | 0.00 | 0.00 | 83 | 1017.7 |
| 20260902043354 | 26 | 325 | 1.6 | 3.2 | 0.00 | 0.00 | 0.00 | 83 | 1017.7 |
| 20260902043324 | 26 | 325 | 0.0 | 3.2 | 0.00 | 0.00 | 0.00 | 84 | 1017.7 |
| 20260902043020 | 26 | 325 | 0.0 | 0.0 | 0.00 | 0.00 | 0.00 | 84 | 1017.7 |
| 20260902042947 | 26 | 325 | 0.0 | 0.0 | 0.00 | 0.00 | 0.00 | 84 | 1017.7 |
| 20260902042834 | 26 | 325 | 0.0 | 1.6 | 0.00 | 0.00 | 0.00 | 84 | 1017.7 |
| 20260902042722 | 26 | 325 | 0.0 | 1.6 | 0.00 | 0.00 | 0.00 | 83 | 1017.6 |
| 20260902042628 | 26 | 325 | 0.0 | 1.6 | 0.00 | 0.00 | 0.00 | 83 | 1017.8 |
| 20260902042519 | 26 | 325 | 0.0 | 1.6 | 0.00 | 0.00 | 0.00 | 83 | 1017.7 |
| 20260902042425 | 26 | 325 | 0.0 | 3.2 | 0.00 | 0.00 | 0.00 | 83 | 1017.7 |
| 20260902042353 | 26 | 325 | 0.0 | 3.2 | 0.00 | 0.00 | 0.00 | 83 | 1017.7 |
| 20260902042239 | 26 | 325 | 0.0 | 3.2 | 0.00 | 0.00 | 0.00 | 83 | 1017.8 |
| 20260902042125 | 26 | 325 | 0.0 | 3.2 | 0.00 | 0.00 | 0.00 | 83 | 1017.7 |
| 20260902042034 | 26 | 325 | 0.0 | 3.2 | 0.00 | 0.00 | 0.00 | 83 | 1017.8 |
| 20260902041920 | 26 | 325 | 0.0 | 3.2 | 0.00 | 0.00 | 0.00 | 83 | 1017.7 |
| 20260902041830 | 26 | 325 | 1.6 | 3.2 | 0.00 | 0.00 | 0.00 | 83 | 1017.7 |
| 20260902041800 | 26 | 325 | 1.6 | 3.2 | 0.00 | 0.00 | 0.00 | 83 | 1017.7 |
| 20260902041554 | 26 | 325 | 1.6 | 3.2 | 0.00 | 0.00 | 0.00 | 82 | 1017.8 |
| 20260902041421 | 26 | 325 | 1.6 | 3.2 | 0.00 | 0.00 | 0.00 | 83 | 1017.7 |
| 20260902041328 | 26 | 325 | 1.6 | 3.2 | 0.00 | 0.00 | 0.00 | 83 | 1017.8 |
| 20260902041221 | 26 | 325 | 1.6 | 1.6 | 0.00 | 0.00 | 0.00 | 83 | 1017.8 |
| 20260902041128 | 26 | 325 | 1.6 | 1.6 | 0.00 | 0.00 | 0.00 | 83 | 1017.8 |
| 20260902041035 | 26 | 325 | 0.0 | 1.6 | 0.00 | 0.00 | 0.00 | 83 | 1017.8 |
| 20260902040923 | 26 | 325 | 0.0 | 1.6 | 0.00 | 0.00 | 0.00 | 84 | 1017.8 |
| 20260902040829 | 26 | 325 | 0.0 | 1.6 | 0.00 | 0.00 | 0.00 | 84 | 1017.9 |
| 20260902040719 | 26 | 325 | 0.0 | 1.6 | 0.00 | 0.00 | 0.00 | 83 | 1017.9 |
| 20260902040626 | 26 | 325 | 0.0 | 1.6 | 0.00 | 0.00 | 0.00 | 83 | 1017.8 |
| 20260902040532 | 26 | 325 | 0.0 | 1.6 | 0.00 | 0.00 | 0.00 | 83 | 1017.8 |
| 20260902040418 | 26 | 325 | 0.0 | 3.2 | 0.00 | 0.00 | 0.00 | 83 | 1017.8 |
| 20260902040326 | 26 | 325 | 0.0 | 3.2 | 0.00 | 0.00 | 0.00 | 83 | 1017.8 |
| 20260902040300 | 26 | 325 | 0.0 | 3.2 | 0.00 | 0.00 | 0.00 | 83 | 1017.8 |
| 20260902040032 | 26 | 325 | 0.0 | 3.2 | 0.00 | 0.00 | 0.00 | 83 | 1017.8 |
| 20260902035938 | 26 | 325 | 0.0 | 3.2 | 0.00 | 0.00 | 0.00 | 83 | 1017.8 |
| 20260902035826 | 26 | 325 | 1.6 | 3.2 | 0.00 | 0.00 | 0.00 | 83 | 1017.7 |
| 20260902035733 | 26 | 325 | 1.6 | 3.2 | 0.00 | 0.00 | 0.00 | 83 | 1017.8 |
| 20260902035623 | 26 | 325 | 1.6 | 4.8 | 0.00 | 0.00 | 0.00 | 83 | 1017.8 |
| 20260902035530 | 26 | 325 | 1.6 | 4.8 | 0.00 | 0.00 | 0.00 | 82 | 1017.9 |
| 20260902035435 | 26 | 325 | 3.2 | 4.8 | 0.00 | 0.00 | 0.00 | 82 | 1017.9 |
| 20260902035320 | 26 | 325 | 3.2 | 4.8 | 0.00 | 0.00 | 0.00 | 80 | 1017.8 |
| 20260902035228 | 26 | 338 | 1.6 | 4.8 | 0.00 | 0.00 | 0.00 | 81 | 1017.9 |
| 20260902035135 | 26 | 345 | 1.6 | 4.8 | 0.00 | 0.00 | 0.00 | 81 | 1017.8 |
| 20260902035027 | 26 | 345 | 3.2 | 4.8 | 0.00 | 0.00 | 0.00 | 81 | 1017.8 |
| 20260902034934 | 26 | 345 | 3.2 | 4.8 | 0.00 | 0.00 | 0.00 | 81 | 1017.8 |
| 20260902034822 | 26 | 347 | 3.2 | 3.2 | 0.00 | 0.00 | 0.00 | 81 | 1017.7 |
| 20260902034752 | 26 | 347 | 1.6 | 3.2 | 0.00 | 0.00 | 0.00 | 81 | 1017.7 |
| 20260902034530 | 26 | 340 | 1.6 | 3.2 | 0.00 | 0.00 | 0.00 | 80 | 1017.7 |
| 20260902034416 | 26 | 340 | 3.2 | 3.2 | 0.00 | 0.00 | 0.00 | 81 | 1017.7 |
| 20260902034322 | 26 | 340 | 1.6 | 3.2 | 0.00 | 0.00 | 0.00 | 80 | 1017.7 |
| 20260902034231 | 26 | 340 | 1.6 | 4.8 | 0.00 | 0.00 | 0.00 | 80 | 1017.7 |
| 20260902034118 | 26 | 340 | 0.0 | 4.8 | 0.00 | 0.00 | 0.00 | 79 | 1017.7 |
| 20260902034025 | 26 | 340 | 0.0 | 4.8 | 0.00 | 0.00 | 0.00 | 79 | 1017.6 |
| 20260902033936 | 26 | 340 | 1.6 | 4.8 | 0.00 | 0.00 | 0.00 | 79 | 1017.7 |
| 20260902033821 | 26 | 340 | 1.6 | 4.8 | 0.00 | 0.00 | 0.00 | 79 | 1017.7 |
| 20260902033749 | 26 | 340 | 1.6 | 4.8 | 0.00 | 0.00 | 0.00 | 79 | 1017.8 |
| 20260902033656 | 26 | 340 | 1.6 | 4.8 | 0.00 | 0.00 | 0.00 | 78 | 1017.7 |
| 20260902033522 | 26 | 340 | 3.2 | 4.8 | 0.00 | 0.00 | 0.00 | 78 | 1017.6 |
| 20260902033448 | 26 | 340 | 1.6 | 4.8 | 0.00 | 0.00 | 0.00 | 78 | 1017.7 |
| 20260902033333 | 26 | 340 | 0.0 | 4.8 | 0.00 | 0.00 | 0.00 | 78 | 1017.7 |
| 20260902033308 | 26 | 340 | 0.0 | 1.6 | 0.00 | 0.00 | 0.00 | 79 | 1017.7 |
| 20260902033021 | 26 | 340 | 0.0 | 0.0 | 0.00 | 0.00 | 0.00 | 79 | 1017.7 |
| 20260902032929 | 26 | 340 | 0.0 | 0.0 | 0.00 | 0.00 | 0.00 | 79 | 1017.7 |
| 20260902032816 | 26 | 340 | 0.0 | 0.0 | 0.00 | 0.00 | 0.00 | 79 | 1017.8 |
| 20260902032726 | 26 | 340 | 0.0 | 0.0 | 0.00 | 0.00 | 0.00 | 79 | 1017.7 |
| 20260902032653 | 26 | 340 | 0.0 | 0.0 | 0.00 | 0.00 | 0.00 | 79 | 1017.7 |
| 20260902032517 | 26 | 340 | 0.0 | 0.0 | 0.00 | 0.00 | 0.00 | 79 | 1017.8 |
| 20260902032424 | 26 | 340 | 0.0 | 0.0 | 0.00 | 0.00 | 0.00 | 80 | 1017.7 |
| 20260902032331 | 26 | 340 | 0.0 | 0.0 | 0.00 | 0.00 | 0.00 | 80 | 1017.8 |
| 20260902032217 | 26 | 340 | 0.0 | 0.0 | 0.00 | 0.00 | 0.00 | 79 | 1017.8 |
| 20260902032128 | 26 | 340 | 0.0 | 0.0 | 0.00 | 0.00 | 0.00 | 79 | 1017.8 |
| 20260902032036 | 26 | 340 | 0.0 | 0.0 | 0.00 | 0.00 | 0.00 | 80 | 1017.8 |
| 20260902031922 | 26 | 340 | 0.0 | 0.0 | 0.00 | 0.00 | 0.00 | 80 | 1017.8 |
| 20260902031849 | 26 | 340 | 0.0 | 0.0 | 0.00 | 0.00 | 0.00 | 77 | 1017.9 |
| 20260902031758 | 26 | 340 | 0.0 | 0.0 | 0.00 | 0.00 | 0.00 | 77 | 1017.9 |
| 20260902031516 | 26 | 340 | 0.0 | 0.0 | 0.00 | 0.00 | 0.00 | 77 | 1017.8 |
| 20260902031442 | 26 | 340 | 0.0 | 0.0 | 0.00 | 0.00 | 0.00 | 77 | 1017.9 |
| 20260902031327 | 26 | 340 | 0.0 | 0.0 | 0.00 | 0.00 | 0.00 | 77 | 1017.8 |
| 20260902031233 | 26 | 340 | 0.0 | 0.0 | 0.00 | 0.00 | 0.00 | 77 | 1017.9 |
| 20260902031120 | 26 | 340 | 0.0 | 0.0 | 0.00 | 0.00 | 0.00 | 76 | 1017.7 |
| 20260902031026 | 27 | 340 | 0.0 | 0.0 | 0.00 | 0.00 | 0.00 | 76 | 1017.8 |
| 20260902030916 | 27 | 340 | 0.0 | 0.0 | 0.00 | 0.00 | 0.00 | 76 | 1017.9 |
| 20260902030843 | 27 | 340 | 0.0 | 0.0 | 0.00 | 0.00 | 0.00 | 76 | 1017.8 |
| 20260902030730 | 27 | 340 | 0.0 | 0.0 | 0.00 | 0.00 | 0.00 | 76 | 1017.9 |
| 20260902030617 | 27 | 340 | 0.0 | 0.0 | 0.00 | 0.00 | 0.00 | 77 | 1017.7 |
| 20260902030545 | 27 | 340 | 0.0 | 0.0 | 0.00 | 0.00 | 0.00 | 77 | 1017.8 |
| 20260902030450 | 27 | 340 | 0.0 | 0.0 | 0.00 | 0.00 | 0.00 | 77 | 1017.8 |
| 20260902030316 | 27 | 340 | 0.0 | 0.0 | 0.00 | 0.00 | 0.00 | 78 | 1017.8 |
| 20260902030250 | 27 | 340 | 0.0 | 0.0 | 0.00 | 0.00 | 0.00 | 79 | 1017.8 |
| 20260902030023 | 27 | 340 | 0.0 | 0.0 | 0.00 | 0.00 | 0.00 | 78 | 1017.8 |
| 20260902025930 | 27 | 340 | 0.0 | 0.0 | 0.00 | 0.00 | 0.00 | 77 | 1017.8 |
| 20260902025817 | 27 | 340 | 0.0 | 0.0 | 0.00 | 0.00 | 0.00 | 77 | 1017.8 |
| 20260902025727 | 27 | 340 | 0.0 | 0.0 | 0.00 | 0.00 | 0.00 | 77 | 1017.8 |
| 20260902025635 | 27 | 340 | 0.0 | 0.0 | 0.00 | 0.00 | 0.00 | 77 | 1017.8 |
| 20260902025523 | 27 | 340 | 0.0 | 0.0 | 0.00 | 0.00 | 0.00 | 77 | 1017.8 |
| 20260902025431 | 27 | 340 | 0.0 | 0.0 | 0.00 | 0.00 | 0.00 | 77 | 1017.9 |
| 20260902025316 | 27 | 340 | 0.0 | 0.0 | 0.00 | 0.00 | 0.00 | 78 | 1017.9 |
| 20260902025223 | 27 | 340 | 0.0 | 0.0 | 0.00 | 0.00 | 0.00 | 78 | 1017.8 |
| 20260902025135 | 27 | 340 | 0.0 | 0.0 | 0.00 | 0.00 | 0.00 | 78 | 1017.9 |
| 20260902025022 | 27 | 340 | 0.0 | 0.0 | 0.00 | 0.00 | 0.00 | 78 | 1017.9 |
| 20260902024951 | 27 | 340 | 0.0 | 0.0 | 0.00 | 0.00 | 0.00 | 78 | 1017.9 |
| 20260902024816 | 27 | 340 | 0.0 | 0.0 | 0.00 | 0.00 | 0.00 | 78 | 1017.9 |
| 20260902024751 | 27 | 340 | 0.0 | 0.0 | 0.00 | 0.00 | 0.00 | 78 | 1017.9 |
| 20260902024523 | 27 | 340 | 0.0 | 0.0 | 0.00 | 0.00 | 0.00 | 78 | 1017.8 |
| 20260902024450 | 27 | 340 | 0.0 | 0.0 | 0.00 | 0.00 | 0.00 | 78 | 1017.8 |
| 20260902024317 | 27 | 340 | 0.0 | 0.0 | 0.00 | 0.00 | 0.00 | 78 | 1017.9 |
| 20260902024245 | 27 | 340 | 0.0 | 0.0 | 0.00 | 0.00 | 0.00 | 77 | 1017.8 |
| 20260902024131 | 27 | 340 | 0.0 | 0.0 | 0.00 | 0.00 | 0.00 | 77 | 1017.8 |
| 20260902024017 | 27 | 340 | 0.0 | 0.0 | 0.00 | 0.00 | 0.00 | 78 | 1017.8 |
| 20260902023928 | 27 | 340 | 0.0 | 0.0 | 0.00 | 0.00 | 0.00 | 78 | 1017.7 |
| 20260902023834 | 27 | 340 | 0.0 | 0.0 | 0.00 | 0.00 | 0.00 | 78 | 1017.7 |
| 20260902023721 | 27 | 340 | 0.0 | 0.0 | 0.00 | 0.00 | 0.00 | 77 | 1017.7 |
| 20260902023628 | 27 | 340 | 0.0 | 0.0 | 0.00 | 0.00 | 0.00 | 77 | 1017.8 |
| 20260902023535 | 27 | 340 | 0.0 | 1.6 | 0.00 | 0.00 | 0.00 | 77 | 1017.8 |
| 20260902023427 | 27 | 340 | 0.0 | 1.6 | 0.00 | 0.00 | 0.00 | 77 | 1017.7 |
| 20260902023354 | 27 | 340 | 0.0 | 1.6 | 0.00 | 0.00 | 0.00 | 77 | 1017.7 |
| 20260902023303 | 27 | 340 | 0.0 | 3.2 | 0.00 | 0.00 | 0.00 | 77 | 1017.7 |
| 20260902023056 | 27 | 340 | 0.0 | 3.2 | 0.00 | 0.00 | 0.00 | 77 | 1017.7 |
| 20260902022920 | 27 | 340 | 0.0 | 4.8 | 0.00 | 0.00 | 0.00 | 76 | 1017.7 |
| 20260902022828 | 27 | 340 | 0.0 | 4.8 | 0.00 | 0.00 | 0.00 | 76 | 1017.7 |
| 20260902022718 | 27 | 340 | 0.0 | 4.8 | 0.00 | 0.00 | 0.00 | 75 | 1017.7 |
| 20260902022626 | 27 | 340 | 0.0 | 4.8 | 0.00 | 0.00 | 0.00 | 74 | 1017.6 |
| 20260902022532 | 27 | 340 | 1.6 | 4.8 | 0.00 | 0.00 | 0.00 | 74 | 1017.6 |
| 20260902022419 | 27 | 340 | 1.6 | 4.8 | 0.00 | 0.00 | 0.00 | 73 | 1017.6 |
| 20260902022325 | 27 | 340 | 3.2 | 4.8 | 0.00 | 0.00 | 0.00 | 73 | 1017.6 |
| 20260902022235 | 27 | 340 | 3.2 | 4.8 | 0.00 | 0.00 | 0.00 | 72 | 1017.6 |
| 20260902022142 | 27 | 340 | 3.2 | 4.8 | 0.00 | 0.00 | 0.00 | 72 | 1017.6 |
| 20260902022028 | 27 | 340 | 3.2 | 4.8 | 0.00 | 0.00 | 0.00 | 72 | 1017.6 |
| 20260902021934 | 27 | 340 | 3.2 | 4.8 | 0.00 | 0.00 | 0.00 | 72 | 1017.6 |
| 20260902021820 | 27 | 340 | 3.2 | 4.8 | 0.00 | 0.00 | 0.00 | 73 | 1017.7 |
| 20260902021753 | 27 | 340 | 3.2 | 4.8 | 0.00 | 0.00 | 0.00 | 73 | 1017.7 |
| 20260902021526 | 28 | 340 | 3.2 | 4.8 | 0.00 | 0.00 | 0.00 | 72 | 1017.6 |
| 20260902021433 | 28 | 340 | 3.2 | 4.8 | 0.00 | 0.00 | 0.00 | 72 | 1017.6 |
| 20260902021319 | 28 | 340 | 3.2 | 4.8 | 0.00 | 0.00 | 0.00 | 72 | 1017.6 |
| 20260902021246 | 28 | 340 | 3.2 | 4.8 | 0.00 | 0.00 | 0.00 | 72 | 1017.5 |
| 20260902021133 | 28 | 340 | 3.2 | 4.8 | 0.00 | 0.00 | 0.00 | 73 | 1017.6 |
| 20260902021025 | 28 | 340 | 3.2 | 3.2 | 0.00 | 0.00 | 0.00 | 73 | 1017.6 |
| 20260902020953 | 28 | 340 | 1.6 | 3.2 | 0.00 | 0.00 | 0.00 | 73 | 1017.5 |
| 20260902020818 | 28 | 340 | 1.6 | 3.2 | 0.00 | 0.00 | 0.00 | 73 | 1017.5 |
| 20260902020725 | 28 | 340 | 1.6 | 3.2 | 0.00 | 0.00 | 0.00 | 73 | 1017.5 |
| 20260902020632 | 28 | 340 | 1.6 | 3.2 | 0.00 | 0.00 | 0.00 | 73 | 1017.5 |
| 20260902020518 | 28 | 340 | 1.6 | 3.2 | 0.00 | 0.00 | 0.00 | 73 | 1017.5 |
| 20260902020451 | 28 | 340 | 1.6 | 3.2 | 0.00 | 0.00 | 0.00 | 72 | 1017.4 |
| 20260902020356 | 28 | 340 | 3.2 | 3.2 | 0.00 | 0.00 | 0.00 | 72 | 1017.4 |
| 20260902020306 | 28 | 340 | 3.2 | 3.2 | 0.00 | 0.00 | 0.00 | 70 | 1017.4 |
| 20260902020040 | 28 | 340 | 3.2 | 3.2 | 0.00 | 0.00 | 0.00 | 70 | 1017.4 |
| 20260902015927 | 28 | 340 | 1.6 | 3.2 | 0.00 | 0.00 | 0.00 | 70 | 1017.4 |
| 20260902015817 | 28 | 340 | 1.6 | 3.2 | 0.00 | 0.00 | 0.00 | 70 | 1017.4 |
| 20260902015725 | 28 | 340 | 1.6 | 3.2 | 0.00 | 0.00 | 0.00 | 70 | 1017.4 |
| 20260902015652 | 28 | 340 | 1.6 | 3.2 | 0.00 | 0.00 | 0.00 | 70 | 1017.4 |
| 20260902015538 | 28 | 340 | 1.6 | 3.2 | 0.00 | 0.00 | 0.00 | 70 | 1017.4 |
| 20260902015424 | 28 | 340 | 3.2 | 3.2 | 0.00 | 0.00 | 0.00 | 70 | 1017.4 |
| 20260902015332 | 28 | 340 | 1.6 | 3.2 | 0.00 | 0.00 | 0.00 | 71 | 1017.4 |
| 20260902015219 | 28 | 340 | 0.0 | 3.2 | 0.00 | 0.00 | 0.00 | 72 | 1017.3 |
| 20260902015129 | 28 | 340 | 0.0 | 0.0 | 0.00 | 0.00 | 0.00 | 72 | 1017.4 |
| 20260902015016 | 28 | 340 | 0.0 | 0.0 | 0.00 | 0.00 | 0.00 | 72 | 1017.4 |
| 20260902014922 | 28 | 340 | 0.0 | 0.0 | 0.00 | 0.00 | 0.00 | 72 | 1017.4 |
| 20260902014849 | 28 | 340 | 0.0 | 0.0 | 0.00 | 0.00 | 0.00 | 72 | 1017.4 |
| 20260902014759 | 29 | 340 | 0.0 | 0.0 | 0.00 | 0.00 | 0.00 | 72 | 1017.4 |
| 20260902014516 | 29 | 340 | 0.0 | 0.0 | 0.00 | 0.00 | 0.00 | 71 | 1017.4 |
| 20260902014423 | 29 | 340 | 0.0 | 0.0 | 0.00 | 0.00 | 0.00 | 71 | 1017.3 |
| 20260902014330 | 29 | 340 | 0.0 | 0.0 | 0.00 | 0.00 | 0.00 | 71 | 1017.2 |
| 20260902014217 | 29 | 340 | 0.0 | 0.0 | 0.00 | 0.00 | 0.00 | 71 | 1017.3 |
| 20260902014124 | 29 | 340 | 0.0 | 0.0 | 0.00 | 0.00 | 0.00 | 70 | 1017.3 |
| 20260902014034 | 29 | 340 | 0.0 | 0.0 | 0.00 | 0.00 | 0.00 | 70 | 1017.3 |
| 20260902013921 | 29 | 340 | 0.0 | 0.0 | 0.00 | 0.00 | 0.00 | 70 | 1017.3 |
| 20260902013849 | 29 | 340 | 0.0 | 0.0 | 0.00 | 0.00 | 0.00 | 70 | 1017.2 |
| 20260902013735 | 29 | 340 | 0.0 | 0.0 | 0.00 | 0.00 | 0.00 | 70 | 1017.1 |
| 20260902013621 | 29 | 340 | 0.0 | 0.0 | 0.00 | 0.00 | 0.00 | 70 | 1017.2 |
| 20260902013528 | 29 | 340 | 0.0 | 0.0 | 0.00 | 0.00 | 0.00 | 69 | 1017.2 |
| 20260902013440 | 29 | 340 | 0.0 | 0.0 | 0.00 | 0.00 | 0.00 | 69 | 1017.2 |
| 20260902013326 | 30 | 340 | 0.0 | 0.0 | 0.00 | 0.00 | 0.00 | 69 | 1017.2 |
| 20260902013256 | 30 | 340 | 0.0 | 0.0 | 0.00 | 0.00 | 0.00 | 69 | 1017.2 |
| 20260902013048 | 30 | 340 | 0.0 | 0.0 | 0.00 | 0.00 | 0.00 | 69 | 1017.2 |
| 20260902012934 | 30 | 340 | 0.0 | 0.0 | 0.00 | 0.00 | 0.00 | 69 | 1017.2 |
| 20260902012824 | 30 | 340 | 0.0 | 0.0 | 0.00 | 0.00 | 0.00 | 68 | 1017.1 |
| 20260902012731 | 30 | 340 | 0.0 | 0.0 | 0.00 | 0.00 | 0.00 | 68 | 1017.1 |
| 20260902012617 | 30 | 340 | 0.0 | 0.0 | 0.00 | 0.00 | 0.00 | 69 | 1017.1 |
| 20260902012524 | 30 | 340 | 0.0 | 0.0 | 0.00 | 0.00 | 0.00 | 69 | 1017.1 |
| 20260902012433 | 30 | 340 | 0.0 | 0.0 | 0.00 | 0.00 | 0.00 | 68 | 1017.1 |
| 20260902012319 | 30 | 340 | 0.0 | 0.0 | 0.00 | 0.00 | 0.00 | 68 | 1017.1 |
| 20260902012249 | 30 | 340 | 0.0 | 0.0 | 0.00 | 0.00 | 0.00 | 68 | 1017.0 |
| 20260902012154 | 30 | 340 | 0.0 | 1.6 | 0.00 | 0.00 | 0.00 | 67 | 1017.1 |
| 20260902012041 | 30 | 340 | 0.0 | 3.2 | 0.00 | 0.00 | 0.00 | 67 | 1017.1 |
| 20260902011927 | 30 | 340 | 0.0 | 3.2 | 0.00 | 0.00 | 0.00 | 67 | 1017.0 |
| 20260902011856 | 30 | 340 | 0.0 | 3.2 | 0.00 | 0.00 | 0.00 | 67 | 1017.0 |
| 20260902011826 | 30 | 340 | 0.0 | 3.2 | 0.00 | 0.00 | 0.00 | 67 | 1017.1 |
| 20260902011520 | 30 | 340 | 0.0 | 3.2 | 0.00 | 0.00 | 0.00 | 65 | 1017.0 |
| 20260902011427 | 30 | 340 | 0.0 | 3.2 | 0.00 | 0.00 | 0.00 | 66 | 1017.0 |
| 20260902011333 | 30 | 340 | 1.6 | 3.2 | 0.00 | 0.00 | 0.00 | 65 | 1017.0 |
| 20260902011220 | 31 | 340 | 1.6 | 3.2 | 0.00 | 0.00 | 0.00 | 64 | 1017.0 |
| 20260902011127 | 31 | 340 | 1.6 | 3.2 | 0.00 | 0.00 | 0.00 | 65 | 1017.0 |
| 20260902011034 | 31 | 202 | 1.6 | 3.2 | 0.00 | 0.00 | 0.00 | 66 | 1017.0 |
| 20260902010924 | 31 | 202 | 1.6 | 3.2 | 0.00 | 0.00 | 0.00 | 64 | 1017.0 |
| 20260902010831 | 31 | 202 | 1.6 | 3.2 | 0.00 | 0.00 | 0.00 | 64 | 1017.0 |
| 20260902010738 | 31 | 202 | 0.0 | 3.2 | 0.00 | 0.00 | 0.00 | 63 | 1017.0 |
| 20260902010623 | 31 | 202 | 0.0 | 3.2 | 0.00 | 0.00 | 0.00 | 62 | 1017.0 |
| 20260902010530 | 31 | 202 | 0.0 | 3.2 | 0.00 | 0.00 | 0.00 | 62 | 1017.0 |
| 20260902010416 | 31 | 202 | 0.0 | 3.2 | 0.00 | 0.00 | 0.00 | 61 | 1017.0 |
| 20260902010329 | 31 | 202 | 0.0 | 4.8 | 0.00 | 0.00 | 0.00 | 62 | 1017.0 |
| 20260902010259 | 31 | 202 | 0.0 | 4.8 | 0.00 | 0.00 | 0.00 | 62 | 1017.0 |
| 20260902010032 | 31 | 202 | 0.0 | 4.8 | 0.00 | 0.00 | 0.00 | 62 | 1017.0 |
| 20260902005919 | 31 | 202 | 1.6 | 4.8 | 0.00 | 0.00 | 0.00 | 61 | 1017.0 |
| 20260902005829 | 31 | 202 | 1.6 | 4.8 | 0.00 | 0.00 | 0.00 | 61 | 1017.1 |
| 20260902005756 | 31 | 202 | 1.6 | 6.4 | 0.00 | 0.00 | 0.00 | 61 | 1017.0 |
| 20260902005622 | 31 | 202 | 3.2 | 6.4 | 0.00 | 0.00 | 0.00 | 61 | 1017.0 |
| 20260902005530 | 31 | 202 | 3.2 | 6.4 | 0.00 | 0.00 | 0.00 | 61 | 1017.1 |
| 20260902005416 | 31 | 200 | 3.2 | 6.4 | 0.00 | 0.00 | 0.00 | 61 | 1017.0 |
| 20260902005324 | 31 | 200 | 1.6 | 6.4 | 0.00 | 0.00 | 0.00 | 62 | 1017.0 |
| 20260902005216 | 31 | 200 | 3.2 | 6.4 | 0.00 | 0.00 | 0.00 | 61 | 1017.0 |
| 20260902005124 | 31 | 200 | 3.2 | 6.4 | 0.00 | 0.00 | 0.00 | 62 | 1017.0 |
| 20260902005030 | 31 | 202 | 3.2 | 6.4 | 0.00 | 0.00 | 0.00 | 61 | 1017.0 |
| 20260902004937 | 31 | 206 | 3.2 | 6.4 | 0.00 | 0.00 | 0.00 | 61 | 1016.9 |
| 20260902004843 | 31 | 194 | 3.2 | 6.4 | 0.00 | 0.00 | 0.00 | 61 | 1017.0 |
| 20260902004817 | 31 | 192 | 1.6 | 6.4 | 0.00 | 0.00 | 0.00 | 61 | 1017.0 |
| 20260902004529 | 31 | 193 | 3.2 | 6.4 | 0.00 | 0.00 | 0.00 | 61 | 1017.0 |
| 20260902004416 | 31 | 193 | 1.6 | 6.4 | 0.00 | 0.00 | 0.00 | 61 | 1016.9 |
| 20260902004323 | 31 | 209 | 3.2 | 6.4 | 0.00 | 0.00 | 0.00 | 61 | 1017.0 |
| 20260902004249 | 31 | 209 | 3.2 | 6.4 | 0.00 | 0.00 | 0.00 | 61 | 1017.1 |
| 20260902004134 | 31 | 175 | 4.8 | 6.4 | 0.00 | 0.00 | 0.00 | 61 | 1017.0 |
| 20260902004024 | 31 | 192 | 4.8 | 6.4 | 0.00 | 0.00 | 0.00 | 62 | 1017.0 |
| 20260902003930 | 31 | 202 | 1.6 | 4.8 | 0.00 | 0.00 | 0.00 | 63 | 1016.9 |
| 20260902003818 | 31 | 209 | 0.0 | 3.2 | 0.00 | 0.00 | 0.00 | 64 | 1016.9 |
| 20260902003746 | 31 | 207 | 0.0 | 3.2 | 0.00 | 0.00 | 0.00 | 64 | 1016.9 |
| 20260902003631 | 31 | 207 | 1.6 | 3.2 | 0.00 | 0.00 | 0.00 | 64 | 1017.0 |
| 20260902003517 | 31 | 207 | 1.6 | 3.2 | 0.00 | 0.00 | 0.00 | 64 | 1016.9 |
| 20260902003443 | 31 | 269 | 1.6 | 4.8 | 0.00 | 0.00 | 0.00 | 63 | 1017.0 |
| 20260902003332 | 31 | 269 | 1.6 | 4.8 | 0.00 | 0.00 | 0.00 | 63 | 1016.9 |
| 20260902003302 | 31 | 274 | 1.6 | 4.8 | 0.00 | 0.00 | 0.00 | 63 | 1016.9 |
| 20260902003035 | 32 | 275 | 1.6 | 4.8 | 0.00 | 0.00 | 0.00 | 63 | 1016.9 |
| 20260902002921 | 32 | 275 | 1.6 | 4.8 | 0.00 | 0.00 | 0.00 | 62 | 1016.9 |
| 20260902002826 | 32 | 275 | 1.6 | 6.4 | 0.00 | 0.00 | 0.00 | 62 | 1017.0 |
| 20260902002717 | 32 | 275 | 3.2 | 8.0 | 0.00 | 0.00 | 0.00 | 62 | 1016.9 |
| 20260902002623 | 32 | 275 | 3.2 | 8.0 | 0.00 | 0.00 | 0.00 | 62 | 1016.9 |
| 20260902002531 | 32 | 273 | 3.2 | 8.0 | 0.00 | 0.00 | 0.00 | 61 | 1016.9 |
| 20260902002438 | 32 | 268 | 3.2 | 8.0 | 0.00 | 0.00 | 0.00 | 61 | 1017.0 |
| 20260902002325 | 32 | 281 | 1.6 | 8.0 | 0.00 | 0.00 | 0.00 | 61 | 1017.0 |
| 20260902002231 | 32 | 279 | 3.2 | 8.0 | 0.00 | 0.00 | 0.00 | 59 | 1016.9 |
| 20260902002121 | 32 | 238 | 3.2 | 8.0 | 0.00 | 0.00 | 0.00 | 58 | 1016.9 |
| 20260902002028 | 32 | 219 | 4.8 | 8.0 | 0.00 | 0.00 | 0.00 | 58 | 1016.9 |
| 20260902001937 | 32 | 193 | 4.8 | 8.0 | 0.00 | 0.00 | 0.00 | 58 | 1016.9 |
| 20260902001842 | 32 | 192 | 4.8 | 8.0 | 0.00 | 0.00 | 0.00 | 58 | 1016.9 |
| 20260902001812 | 32 | 214 | 4.8 | 6.4 | 0.00 | 0.00 | 0.00 | 58 | 1016.9 |
| 20260902001548 | 32 | 209 | 4.8 | 6.4 | 0.00 | 0.00 | 0.00 | 58 | 1016.9 |
| 20260902001454 | 32 | 205 | 4.8 | 6.4 | 0.00 | 0.00 | 0.00 | 58 | 1016.8 |
| 20260902001320 | 32 | 192 | 4.8 | 8.0 | 0.00 | 0.00 | 0.00 | 58 | 1016.9 |
| 20260902001226 | 32 | 192 | 3.2 | 8.0 | 0.00 | 0.00 | 0.00 | 58 | 1016.9 |
| 20260902001134 | 32 | 212 | 3.2 | 8.0 | 0.00 | 0.00 | 0.00 | 58 | 1016.8 |
| 20260902001020 | 32 | 194 | 3.2 | 8.0 | 0.00 | 0.00 | 0.00 | 58 | 1016.9 |
| 20260902000931 | 32 | 187 | 4.8 | 8.0 | 0.00 | 0.00 | 0.00 | 58 | 1016.9 |
| 20260902000818 | 32 | 196 | 4.8 | 8.0 | 0.00 | 0.00 | 0.00 | 58 | 1016.9 |
| 20260902000744 | 32 | 219 | 4.8 | 8.0 | 0.00 | 0.00 | 0.00 | 58 | 1016.9 |
| 20260902000630 | 32 | 221 | 4.8 | 8.0 | 0.00 | 0.00 | 0.00 | 58 | 1016.9 |
| 20260902000536 | 32 | 187 | 4.8 | 8.0 | 0.00 | 0.00 | 0.00 | 58 | 1016.9 |
| 20260902000423 | 32 | 197 | 4.8 | 8.0 | 0.00 | 0.00 | 0.00 | 58 | 1017.0 |
| 20260902000333 | 32 | 198 | 4.8 | 8.0 | 0.00 | 0.00 | 0.00 | 58 | 1017.0 |
| 20260902000304 | 33 | 214 | 4.8 | 8.0 | 0.00 | 0.00 | 0.00 | 58 | 1017.0 |
| 20260902000016 | 33 | 213 | 3.2 | 4.8 | 0.00 | 0.00 | 0.00 | 60 | 1017.0 |
| 20260901235923 | 33 | 263 | 3.2 | 4.8 | 0.00 | 0.00 | 0.00 | 59 | 1017.0 |
| 20260901235830 | 33 | 263 | 3.2 | 4.8 | 0.00 | 0.00 | 0.00 | 59 | 1017.0 |
| 20260901235719 | 33 | 264 | 3.2 | 4.8 | 0.00 | 0.00 | 0.00 | 58 | 1017.0 |
| 20260901235628 | 33 | 272 | 3.2 | 4.8 | 0.00 | 0.00 | 0.00 | 58 | 1017.1 |
| 20260901235535 | 33 | 279 | 1.6 | 4.8 | 0.00 | 0.00 | 0.00 | 57 | 1017.0 |
| 20260901235421 | 33 | 242 | 1.6 | 3.2 | 0.00 | 0.00 | 0.00 | 57 | 1017.0 |
| 20260901235328 | 33 | 216 | 1.6 | 3.2 | 0.00 | 0.00 | 0.00 | 54 | 1016.9 |
| 20260901235218 | 33 | 211 | 1.6 | 4.8 | 0.00 | 0.00 | 0.00 | 54 | 1017.0 |
| 20260901235125 | 33 | 211 | 1.6 | 4.8 | 0.00 | 0.00 | 0.00 | 54 | 1016.9 |
| 20260901235053 | 33 | 201 | 1.6 | 6.4 | 0.00 | 0.00 | 0.00 | 54 | 1017.0 |
| 20260901234919 | 33 | 201 | 1.6 | 6.4 | 0.00 | 0.00 | 0.00 | 54 | 1017.0 |
| 20260901234826 | 33 | 201 | 1.6 | 6.4 | 0.00 | 0.00 | 0.00 | 54 | 1017.0 |
| 20260901234802 | 33 | 202 | 1.6 | 6.4 | 0.00 | 0.00 | 0.00 | 53 | 1017.0 |
| 20260901234533 | 33 | 203 | 3.2 | 6.4 | 0.00 | 0.00 | 0.00 | 53 | 1017.0 |
| 20260901234441 | 33 | 228 | 3.2 | 6.4 | 0.00 | 0.00 | 0.00 | 53 | 1017.0 |
| 20260901234327 | 33 | 194 | 3.2 | 6.4 | 0.00 | 0.00 | 0.00 | 53 | 1017.0 |
| 20260901234235 | 33 | 212 | 3.2 | 6.4 | 0.00 | 0.00 | 0.00 | 53 | 1016.9 |
| 20260901234122 | 33 | 180 | 1.6 | 4.8 | 0.00 | 0.00 | 0.00 | 53 | 1017.0 |
| 20260901234032 | 33 | 181 | 1.6 | 4.8 | 0.00 | 0.00 | 0.00 | 54 | 1017.0 |
| 20260901233940 | 33 | 181 | 1.6 | 6.4 | 0.00 | 0.00 | 0.00 | 54 | 1016.9 |
| 20260901233826 | 33 | 195 | 1.6 | 6.4 | 0.00 | 0.00 | 0.00 | 52 | 1016.9 |
| 20260901233733 | 33 | 202 | 1.6 | 6.4 | 0.00 | 0.00 | 0.00 | 52 | 1016.9 |
| 20260901233619 | 33 | 202 | 1.6 | 6.4 | 0.00 | 0.00 | 0.00 | 52 | 1017.0 |
| 20260901233526 | 33 | 202 | 1.6 | 6.4 | 0.00 | 0.00 | 0.00 | 51 | 1017.0 |
| 20260901233418 | 33 | 201 | 1.6 | 6.4 | 0.00 | 0.00 | 0.00 | 50 | 1016.9 |
| 20260901233325 | 34 | 201 | 1.6 | 6.4 | 0.00 | 0.00 | 0.00 | 51 | 1017.0 |
| 20260901233255 | 34 | 201 | 3.2 | 6.4 | 0.00 | 0.00 | 0.00 | 51 | 1017.0 |
| 20260901233029 | 34 | 170 | 3.2 | 4.8 | 0.00 | 0.00 | 0.00 | 52 | 1016.9 |
| 20260901232920 | 34 | 170 | 3.2 | 6.4 | 0.00 | 0.00 | 0.00 | 51 | 1016.9 |
| 20260901232827 | 34 | 165 | 1.6 | 4.8 | 0.00 | 0.00 | 0.00 | 51 | 1016.9 |
| 20260901232754 | 34 | 165 | 1.6 | 4.8 | 0.00 | 0.00 | 0.00 | 51 | 1016.9 |
| 20260901232620 | 34 | 165 | 1.6 | 4.8 | 0.00 | 0.00 | 0.00 | 52 | 1016.9 |
| 20260901232526 | 34 | 127 | 1.6 | 4.8 | 0.00 | 0.00 | 0.00 | 53 | 1017.0 |
| 20260901232432 | 34 | 127 | 1.6 | 6.4 | 0.00 | 0.00 | 0.00 | 52 | 1017.0 |
| 20260901232324 | 34 | 127 | 3.2 | 6.4 | 0.00 | 0.00 | 0.00 | 53 | 1017.0 |
| 20260901232231 | 34 | 123 | 1.6 | 6.4 | 0.00 | 0.00 | 0.00 | 50 | 1017.0 |
| 20260901232118 | 34 | 198 | 0.0 | 6.4 | 0.00 | 0.00 | 0.00 | 50 | 1017.0 |
| 20260901232045 | 34 | 198 | 0.0 | 6.4 | 0.00 | 0.00 | 0.00 | 50 | 1017.0 |
| 20260901231931 | 34 | 198 | 3.2 | 6.4 | 0.00 | 0.00 | 0.00 | 51 | 1017.0 |
| 20260901231820 | 34 | 198 | 3.2 | 8.0 | 0.00 | 0.00 | 0.00 | 51 | 1017.0 |
| 20260901231755 | 34 | 198 | 4.8 | 8.0 | 0.00 | 0.00 | 0.00 | 51 | 1017.0 |
| 20260901231528 | 34 | 207 | 3.2 | 8.0 | 0.00 | 0.00 | 0.00 | 51 | 1016.9 |
| 20260901231435 | 34 | 221 | 3.2 | 8.0 | 0.00 | 0.00 | 0.00 | 51 | 1016.9 |
| 20260901231342 | 34 | 215 | 3.2 | 8.0 | 0.00 | 0.00 | 0.00 | 51 | 1017.0 |
| 20260901231226 | 34 | 213 | 4.8 | 8.0 | 0.00 | 0.00 | 0.00 | 52 | 1017.0 |
| 20260901231116 | 34 | 205 | 4.8 | 8.0 | 0.00 | 0.00 | 0.00 | 52 | 1016.9 |
| 20260901231023 | 34 | 219 | 4.8 | 8.0 | 0.00 | 0.00 | 0.00 | 52 | 1016.9 |
| 20260901230932 | 34 | 200 | 4.8 | 6.4 | 0.00 | 0.00 | 0.00 | 51 | 1016.9 |
| 20260901230818 | 34 | 209 | 4.8 | 6.4 | 0.00 | 0.00 | 0.00 | 52 | 1017.0 |
| 20260901230746 | 34 | 173 | 6.4 | 6.4 | 0.00 | 0.00 | 0.00 | 51 | 1016.9 |
| 20260901230631 | 34 | 194 | 4.8 | 6.4 | 0.00 | 0.00 | 0.00 | 52 | 1017.0 |
| 20260901230541 | 34 | 201 | 3.2 | 6.4 | 0.00 | 0.00 | 0.00 | 51 | 1017.0 |
| 20260901230426 | 34 | 209 | 3.2 | 6.4 | 0.00 | 0.00 | 0.00 | 51 | 1017.0 |
| 20260901230334 | 34 | 221 | 3.2 | 6.4 | 0.00 | 0.00 | 0.00 | 51 | 1017.0 |
| 20260901230304 | 34 | 196 | 3.2 | 6.4 | 0.00 | 0.00 | 0.00 | 51 | 1017.0 |
| 20260901230017 | 34 | 211 | 3.2 | 4.8 | 0.00 | 0.00 | 0.00 | 51 | 1017.0 |
| 20260901225929 | 34 | 227 | 1.6 | 4.8 | 0.00 | 0.00 | 0.00 | 50 | 1017.0 |
| 20260901225835 | 34 | 92 | 1.6 | 4.8 | 0.00 | 0.00 | 0.00 | 48 | 1016.9 |
| 20260901225740 | 34 | 155 | 1.6 | 4.8 | 0.00 | 0.00 | 0.00 | 48 | 1016.9 |
| 20260901225626 | 34 | 155 | 3.2 | 4.8 | 0.00 | 0.00 | 0.00 | 48 | 1016.9 |
| 20260901225533 | 34 | 155 | 3.2 | 4.8 | 0.00 | 0.00 | 0.00 | 47 | 1017.0 |
| 20260901225441 | 34 | 155 | 3.2 | 4.8 | 0.00 | 0.00 | 0.00 | 48 | 1016.9 |
| 20260901225330 | 34 | 117 | 1.6 | 4.8 | 0.00 | 0.00 | 0.00 | 49 | 1016.9 |
| 20260901225235 | 34 | 143 | 1.6 | 4.8 | 0.00 | 0.00 | 0.00 | 48 | 1016.9 |
| 20260901225122 | 35 | 66 | 1.6 | 4.8 | 0.00 | 0.00 | 0.00 | 49 | 1016.9 |
| 20260901225029 | 35 | 49 | 1.6 | 4.8 | 0.00 | 0.00 | 0.00 | 48 | 1017.0 |
| 20260901224957 | 35 | 78 | 3.2 | 4.8 | 0.00 | 0.00 | 0.00 | 48 | 1016.9 |
| 20260901224822 | 35 | 109 | 3.2 | 4.8 | 0.00 | 0.00 | 0.00 | 49 | 1016.9 |
| 20260901224756 | 35 | 109 | 3.2 | 4.8 | 0.00 | 0.00 | 0.00 | 49 | 1016.9 |
| 20260901224529 | 35 | 126 | 1.6 | 4.8 | 0.00 | 0.00 | 0.00 | 47 | 1016.9 |
| 20260901224418 | 35 | 130 | 1.6 | 4.8 | 0.00 | 0.00 | 0.00 | 47 | 1016.9 |
| 20260901224324 | 35 | 355 | 1.6 | 4.8 | 0.00 | 0.00 | 0.00 | 48 | 1016.9 |
| 20260901224230 | 35 | 88 | 1.6 | 4.8 | 0.00 | 0.00 | 0.00 | 47 | 1016.9 |
| 20260901224121 | 35 | 355 | 1.6 | 8.0 | 0.00 | 0.00 | 0.00 | 47 | 1016.9 |
| 20260901224028 | 35 | 355 | 1.6 | 8.0 | 0.00 | 0.00 | 0.00 | 47 | 1016.8 |
| 20260901223935 | 35 | 355 | 0.0 | 8.0 | 0.00 | 0.00 | 0.00 | 48 | 1016.9 |
| 20260901223843 | 35 | 355 | 1.6 | 8.0 | 0.00 | 0.00 | 0.00 | 47 | 1016.9 |
| 20260901223728 | 35 | 355 | 1.6 | 8.0 | 0.00 | 0.00 | 0.00 | 46 | 1016.9 |
| 20260901223618 | 35 | 355 | 3.2 | 8.0 | 0.00 | 0.00 | 0.00 | 46 | 1016.9 |
| 20260901223524 | 35 | 33 | 3.2 | 8.0 | 0.00 | 0.00 | 0.00 | 46 | 1016.8 |
| 20260901223432 | 35 | 33 | 3.2 | 8.0 | 0.00 | 0.00 | 0.00 | 47 | 1016.8 |
| 20260901223358 | 35 | 28 | 3.2 | 9.7 | 0.00 | 0.00 | 0.00 | 47 | 1016.8 |
| 20260901223309 | 35 | 39 | 3.2 | 9.7 | 0.00 | 0.00 | 0.00 | 47 | 1016.8 |
| 20260901223025 | 35 | 94 | 3.2 | 9.7 | 0.00 | 0.00 | 0.00 | 47 | 1016.8 |
| 20260901222931 | 35 | 40 | 3.2 | 9.7 | 0.00 | 0.00 | 0.00 | 48 | 1016.8 |
| 20260901222819 | 35 | 49 | 3.2 | 9.7 | 0.00 | 0.00 | 0.00 | 48 | 1016.8 |
| 20260901222728 | 35 | 88 | 3.2 | 9.7 | 0.00 | 0.00 | 0.00 | 48 | 1016.8 |
| 20260901222633 | 35 | 55 | 1.6 | 6.4 | 0.00 | 0.00 | 0.00 | 50 | 1016.7 |
| 20260901222519 | 35 | 57 | 3.2 | 6.4 | 0.00 | 0.00 | 0.00 | 48 | 1016.8 |
| 20260901222432 | 35 | 74 | 3.2 | 6.4 | 0.00 | 0.00 | 0.00 | 48 | 1016.7 |
| 20260901222318 | 35 | 355 | 3.2 | 6.4 | 0.00 | 0.00 | 0.00 | 47 | 1016.8 |
| 20260901222225 | 35 | 325 | 1.6 | 6.4 | 0.00 | 0.00 | 0.00 | 47 | 1016.8 |
| 20260901222131 | 35 | 355 | 1.6 | 6.4 | 0.00 | 0.00 | 0.00 | 47 | 1016.7 |
| 20260901222019 | 35 | 355 | 1.6 | 6.4 | 0.00 | 0.00 | 0.00 | 47 | 1016.7 |
| 20260901221929 | 35 | 355 | 1.6 | 6.4 | 0.00 | 0.00 | 0.00 | 46 | 1016.8 |
| 20260901221807 | 35 | 355 | 3.2 | 6.4 | 0.00 | 0.00 | 0.00 | 47 | 1016.8 |
| 20260901221540 | 35 | 34 | 3.2 | 6.4 | 0.00 | 0.00 | 0.00 | 47 | 1016.8 |
| 20260901221426 | 35 | 304 | 3.2 | 9.7 | 0.00 | 0.00 | 0.00 | 47 | 1016.7 |
| 20260901221317 | 35 | 343 | 1.6 | 9.7 | 0.00 | 0.00 | 0.00 | 46 | 1016.7 |
| 20260901221224 | 35 | 113 | 1.6 | 9.7 | 0.00 | 0.00 | 0.00 | 46 | 1016.8 |
| 20260901221150 | 35 | 113 | 3.2 | 9.7 | 0.00 | 0.00 | 0.00 | 46 | 1016.8 |
| 20260901221035 | 35 | 151 | 3.2 | 9.7 | 0.00 | 0.00 | 0.00 | 46 | 1016.7 |
| 20260901220942 | 35 | 190 | 1.6 | 9.7 | 0.00 | 0.00 | 0.00 | 46 | 1016.7 |
| 20260901220827 | 35 | 230 | 1.6 | 9.7 | 0.00 | 0.00 | 0.00 | 45 | 1016.7 |
| 20260901220716 | 35 | 82 | 4.8 | 9.7 | 0.00 | 0.00 | 0.00 | 46 | 1016.7 |
| 20260901220623 | 35 | 92 | 4.8 | 9.7 | 0.00 | 0.00 | 0.00 | 47 | 1016.7 |
| 20260901220532 | 35 | 80 | 4.8 | 8.0 | 0.00 | 0.00 | 0.00 | 46 | 1016.8 |
| 20260901220419 | 35 | 71 | 3.2 | 8.0 | 0.00 | 0.00 | 0.00 | 47 | 1016.7 |
| 20260901220346 | 35 | 132 | 3.2 | 8.0 | 0.00 | 0.00 | 0.00 | 48 | 1016.7 |
| 20260901220301 | 35 | 59 | 3.2 | 6.4 | 0.00 | 0.00 | 0.00 | 45 | 1016.7 |
| 20260901220033 | 35 | 157 | 1.6 | 6.4 | 0.00 | 0.00 | 0.00 | 46 | 1016.7 |
| 20260901215920 | 36 | 111 | 1.6 | 6.4 | 0.00 | 0.00 | 0.00 | 47 | 1016.8 |
| 20260901215828 | 36 | 111 | 3.2 | 6.4 | 0.00 | 0.00 | 0.00 | 45 | 1016.7 |
| 20260901215735 | 36 | 111 | 4.8 | 6.4 | 0.00 | 0.00 | 0.00 | 46 | 1016.8 |
| 20260901215622 | 36 | 74 | 4.8 | 6.4 | 0.00 | 0.00 | 0.00 | 48 | 1016.8 |
| 20260901215553 | 36 | 94 | 4.8 | 6.4 | 0.00 | 0.00 | 0.00 | 45 | 1016.8 |
| 20260901215418 | 36 | 55 | 4.8 | 8.0 | 0.00 | 0.00 | 0.00 | 45 | 1016.7 |
| 20260901215325 | 36 | 84 | 4.8 | 8.0 | 0.00 | 0.00 | 0.00 | 45 | 1016.7 |
| 20260901215232 | 36 | 84 | 4.8 | 9.7 | 0.00 | 0.00 | 0.00 | 46 | 1016.7 |
| 20260901215120 | 36 | 123 | 3.2 | 9.7 | 0.00 | 0.00 | 0.00 | 45 | 1016.8 |
| 20260901215027 | 36 | 140 | 4.8 | 9.7 | 0.00 | 0.00 | 0.00 | 44 | 1016.7 |
| 20260901214919 | 36 | 219 | 4.8 | 9.7 | 0.00 | 0.00 | 0.00 | 44 | 1016.7 |
| 20260901214826 | 36 | 207 | 4.8 | 9.7 | 0.00 | 0.00 | 0.00 | 45 | 1016.7 |
| 20260901214757 | 36 | 163 | 4.8 | 9.7 | 0.00 | 0.00 | 0.00 | 45 | 1016.7 |
| 20260901214529 | 36 | 71 | 4.8 | 12.9 | 0.00 | 0.00 | 0.00 | 44 | 1016.7 |
| 20260901214439 | 36 | 75 | 6.4 | 12.9 | 0.00 | 0.00 | 0.00 | 46 | 1016.7 |
| 20260901214325 | 36 | 15 | 6.4 | 12.9 | 0.00 | 0.00 | 0.00 | 46 | 1016.7 |
| 20260901214232 | 36 | 74 | 4.8 | 12.9 | 0.00 | 0.00 | 0.00 | 46 | 1016.7 |
| 20260901214118 | 36 | 360 | 4.8 | 12.9 | 0.00 | 0.00 | 0.00 | 47 | 1016.7 |
| 20260901214025 | 36 | 26 | 4.8 | 12.9 | 0.00 | 0.00 | 0.00 | 46 | 1016.7 |
| 20260901213934 | 36 | 5 | 6.4 | 12.9 | 0.00 | 0.00 | 0.00 | 47 | 1016.7 |
| 20260901213825 | 36 | 12 | 6.4 | 12.9 | 0.00 | 0.00 | 0.00 | 46 | 1016.7 |
| 20260901213732 | 36 | 15 | 6.4 | 9.7 | 0.00 | 0.00 | 0.00 | 46 | 1016.8 |
| 20260901213617 | 36 | 5 | 4.8 | 9.7 | 0.00 | 0.00 | 0.00 | 46 | 1016.7 |
| 20260901213545 | 36 | 34 | 4.8 | 9.7 | 0.00 | 0.00 | 0.00 | 46 | 1016.7 |
| 20260901213430 | 36 | 31 | 4.8 | 9.7 | 0.00 | 0.00 | 0.00 | 47 | 1016.7 |
| 20260901213317 | 36 | 30 | 6.4 | 9.7 | 0.00 | 0.00 | 0.00 | 47 | 1016.7 |
| 20260901213252 | 36 | 26 | 6.4 | 9.7 | 0.00 | 0.00 | 0.00 | 47 | 1016.7 |
| 20260901213025 | 36 | 30 | 6.4 | 11.3 | 0.00 | 0.00 | 0.00 | 46 | 1016.7 |
| 20260901212952 | 36 | 90 | 4.8 | 9.7 | 0.00 | 0.00 | 0.00 | 47 | 1016.7 |
| 20260901212819 | 36 | 5 | 4.8 | 9.7 | 0.00 | 0.00 | 0.00 | 46 | 1016.7 |
| 20260901212725 | 35 | 49 | 3.2 | 9.7 | 0.00 | 0.00 | 0.00 | 47 | 1016.8 |
| 20260901212635 | 35 | 331 | 1.6 | 9.7 | 0.00 | 0.00 | 0.00 | 47 | 1016.7 |
| 20260901212523 | 35 | 107 | 1.6 | 9.7 | 0.00 | 0.00 | 0.00 | 47 | 1016.8 |
| 20260901212429 | 35 | 81 | 1.6 | 9.7 | 0.00 | 0.00 | 0.00 | 46 | 1016.7 |
| 20260901212317 | 35 | 155 | 3.2 | 9.7 | 0.00 | 0.00 | 0.00 | 46 | 1016.9 |
| 20260901212226 | 35 | 80 | 4.8 | 9.7 | 0.00 | 0.00 | 0.00 | 47 | 1016.7 |
| 20260901212116 | 35 | 124 | 3.2 | 9.7 | 0.00 | 0.00 | 0.00 | 48 | 1016.8 |
| 20260901212023 | 35 | 130 | 3.2 | 9.7 | 0.00 | 0.00 | 0.00 | 47 | 1016.7 |
| 20260901211930 | 35 | 136 | 4.8 | 9.7 | 0.00 | 0.00 | 0.00 | 46 | 1016.8 |
| 20260901211837 | 35 | 64 | 4.8 | 9.7 | 0.00 | 0.00 | 0.00 | 48 | 1016.8 |
| 20260901211808 | 35 | 57 | 6.4 | 9.7 | 0.00 | 0.00 | 0.00 | 49 | 1016.8 |
| 20260901211525 | 35 | 138 | 3.2 | 8.0 | 0.00 | 0.00 | 0.00 | 49 | 1016.9 |
| 20260901211432 | 35 | 169 | 3.2 | 12.9 | 0.00 | 0.00 | 0.00 | 46 | 1016.8 |
| 20260901211318 | 35 | 191 | 3.2 | 12.9 | 0.00 | 0.00 | 0.00 | 47 | 1016.8 |
| 20260901211226 | 35 | 213 | 3.2 | 12.9 | 0.00 | 0.00 | 0.00 | 46 | 1016.8 |
| 20260901211133 | 35 | 126 | 3.2 | 12.9 | 0.00 | 0.00 | 0.00 | 46 | 1016.8 |
| 20260901211024 | 35 | 139 | 3.2 | 12.9 | 0.00 | 0.00 | 0.00 | 46 | 1016.8 |
| 20260901210932 | 35 | 345 | 4.8 | 12.9 | 0.00 | 0.00 | 0.00 | 46 | 1016.9 |
| 20260901210818 | 35 | 197 | 4.8 | 12.9 | 0.00 | 0.00 | 0.00 | 46 | 1016.8 |
| 20260901210726 | 35 | 190 | 6.4 | 12.9 | 0.00 | 0.00 | 0.00 | 48 | 1016.9 |
| 20260901210633 | 35 | 192 | 8.0 | 12.9 | 0.00 | 0.00 | 0.00 | 47 | 1017.0 |
| 20260901210520 | 35 | 140 | 6.4 | 11.3 | 0.00 | 0.00 | 0.00 | 48 | 1017.0 |
| 20260901210451 | 35 | 81 | 4.8 | 11.3 | 0.00 | 0.00 | 0.00 | 47 | 1017.0 |
| 20260901210357 | 35 | 121 | 3.2 | 11.3 | 0.00 | 0.00 | 0.00 | 46 | 1017.0 |
| 20260901210328 | 35 | 123 | 3.2 | 11.3 | 0.00 | 0.00 | 0.00 | 45 | 1016.9 |
| 20260901210040 | 35 | 65 | 3.2 | 11.3 | 0.00 | 0.00 | 0.00 | 46 | 1017.1 |
| 20260901205926 | 35 | 85 | 3.2 | 11.3 | 0.00 | 0.00 | 0.00 | 46 | 1017.0 |
| 20260901205853 | 35 | 80 | 4.8 | 12.9 | 0.00 | 0.00 | 0.00 | 46 | 1017.0 |
| 20260901205723 | 35 | 71 | 6.4 | 12.9 | 0.00 | 0.00 | 0.00 | 47 | 1017.1 |
| 20260901205631 | 35 | 112 | 6.4 | 12.9 | 0.00 | 0.00 | 0.00 | 46 | 1017.1 |
| 20260901205517 | 35 | 114 | 8.0 | 12.9 | 0.00 | 0.00 | 0.00 | 46 | 1017.1 |
| 20260901205424 | 35 | 123 | 8.0 | 12.9 | 0.00 | 0.00 | 0.00 | 46 | 1017.0 |
| 20260901205351 | 35 | 135 | 8.0 | 12.9 | 0.00 | 0.00 | 0.00 | 47 | 1017.1 |
| 20260901205216 | 35 | 156 | 8.0 | 12.9 | 0.00 | 0.00 | 0.00 | 47 | 1017.1 |
| 20260901205127 | 35 | 126 | 9.7 | 12.9 | 0.00 | 0.00 | 0.00 | 47 | 1017.2 |
| 20260901205034 | 35 | 121 | 8.0 | 12.9 | 0.00 | 0.00 | 0.00 | 47 | 1017.1 |
| 20260901204922 | 35 | 113 | 6.4 | 12.9 | 0.00 | 0.00 | 0.00 | 48 | 1017.1 |
| 20260901204849 | 35 | 74 | 4.8 | 12.9 | 0.00 | 0.00 | 0.00 | 47 | 1017.2 |
| 20260901204756 | 35 | 103 | 4.8 | 11.3 | 0.00 | 0.00 | 0.00 | 47 | 1017.2 |
| 20260901204528 | 35 | 140 | 3.2 | 8.0 | 0.00 | 0.00 | 0.00 | 48 | 1017.1 |
| 20260901204435 | 35 | 145 | 4.8 | 8.0 | 0.00 | 0.00 | 0.00 | 46 | 1017.1 |
| 20260901204323 | 35 | 165 | 4.8 | 12.9 | 0.00 | 0.00 | 0.00 | 47 | 1017.2 |
| 20260901204229 | 35 | 158 | 3.2 | 12.9 | 0.00 | 0.00 | 0.00 | 47 | 1017.1 |
| 20260901204116 | 35 | 236 | 3.2 | 12.9 | 0.00 | 0.00 | 0.00 | 47 | 1017.1 |
| 20260901204024 | 35 | 211 | 3.2 | 12.9 | 0.00 | 0.00 | 0.00 | 47 | 1017.2 |
| 20260901203934 | 35 | 190 | 4.8 | 12.9 | 0.00 | 0.00 | 0.00 | 47 | 1017.2 |
| 20260901203821 | 35 | 206 | 6.4 | 12.9 | 0.00 | 0.00 | 0.00 | 47 | 1017.2 |
| 20260901203728 | 35 | 215 | 6.4 | 12.9 | 0.00 | 0.00 | 0.00 | 47 | 1017.3 |
| 20260901203633 | 35 | 195 | 6.4 | 12.9 | 0.00 | 0.00 | 0.00 | 47 | 1017.2 |
| 20260901203522 | 35 | 133 | 6.4 | 12.9 | 0.00 | 0.00 | 0.00 | 48 | 1017.3 |
| 20260901203433 | 35 | 120 | 4.8 | 12.9 | 0.00 | 0.00 | 0.00 | 46 | 1017.2 |
| 20260901203320 | 35 | 126 | 4.8 | 12.9 | 0.00 | 0.00 | 0.00 | 46 | 1017.2 |
| 20260901203250 | 35 | 124 | 4.8 | 19.3 | 0.00 | 0.00 | 0.00 | 46 | 1017.4 |
| 20260901203043 | 35 | 273 | 3.2 | 19.3 | 0.00 | 0.00 | 0.00 | 47 | 1017.4 |
| 20260901202929 | 35 | 113 | 3.2 | 19.3 | 0.00 | 0.00 | 0.00 | 50 | 1017.3 |
| 20260901202820 | 35 | 159 | 6.4 | 19.3 | 0.00 | 0.00 | 0.00 | 48 | 1017.4 |
| 20260901202726 | 35 | 84 | 8.0 | 19.3 | 0.00 | 0.00 | 0.00 | 47 | 1017.4 |
| 20260901202653 | 35 | 150 | 6.4 | 19.3 | 0.00 | 0.00 | 0.00 | 47 | 1017.4 |
| 20260901202517 | 35 | 175 | 6.4 | 19.3 | 0.00 | 0.00 | 0.00 | 47 | 1017.5 |
| 20260901202424 | 35 | 115 | 11.3 | 19.3 | 0.00 | 0.00 | 0.00 | 46 | 1017.5 |
| 20260901202331 | 35 | 128 | 12.9 | 19.3 | 0.00 | 0.00 | 0.00 | 47 | 1017.4 |
| 20260901202223 | 35 | 105 | 11.3 | 16.1 | 0.00 | 0.00 | 0.00 | 48 | 1017.4 |
| 20260901202131 | 35 | 107 | 6.4 | 16.1 | 0.00 | 0.00 | 0.00 | 46 | 1017.5 |
| 20260901202038 | 35 | 161 | 3.2 | 12.9 | 0.00 | 0.00 | 0.00 | 47 | 1017.5 |
| 20260901201923 | 35 | 187 | 4.8 | 12.9 | 0.00 | 0.00 | 0.00 | 47 | 1017.5 |
| 20260901201830 | 35 | 149 | 6.4 | 12.9 | 0.00 | 0.00 | 0.00 | 47 | 1017.6 |
| 20260901201805 | 35 | 115 | 6.4 | 12.9 | 0.00 | 0.00 | 0.00 | 47 | 1017.6 |
| 20260901201517 | 35 | 182 | 6.4 | 12.9 | 0.00 | 0.00 | 0.00 | 46 | 1017.5 |
| 20260901201424 | 35 | 167 | 6.4 | 12.9 | 0.00 | 0.00 | 0.00 | 46 | 1017.5 |
| 20260901201331 | 35 | 186 | 6.4 | 12.9 | 0.00 | 0.00 | 0.00 | 45 | 1017.5 |
| 20260901201218 | 35 | 214 | 9.7 | 12.9 | 0.00 | 0.00 | 0.00 | 45 | 1017.5 |
| 20260901201129 | 35 | 121 | 8.0 | 12.9 | 0.00 | 0.00 | 0.00 | 47 | 1017.6 |
| 20260901201016 | 35 | 169 | 6.4 | 12.9 | 0.00 | 0.00 | 0.00 | 44 | 1017.5 |
| 20260901200922 | 35 | 190 | 8.0 | 12.9 | 0.00 | 0.00 | 0.00 | 45 | 1017.5 |
| 20260901200831 | 35 | 158 | 6.4 | 12.9 | 0.00 | 0.00 | 0.00 | 44 | 1017.6 |
| 20260901200738 | 35 | 202 | 4.8 | 12.9 | 0.00 | 0.00 | 0.00 | 45 | 1017.6 |
| 20260901200623 | 35 | 200 | 6.4 | 12.9 | 0.00 | 0.00 | 0.00 | 45 | 1017.6 |
| 20260901200551 | 35 | 158 | 6.4 | 12.9 | 0.00 | 0.00 | 0.00 | 47 | 1017.5 |
| 20260901200422 | 35 | 126 | 4.8 | 11.3 | 0.00 | 0.00 | 0.00 | 47 | 1017.6 |
| 20260901200329 | 35 | 150 | 4.8 | 11.3 | 0.00 | 0.00 | 0.00 | 45 | 1017.5 |
| 20260901200259 | 35 | 167 | 4.8 | 8.0 | 0.00 | 0.00 | 0.00 | 45 | 1017.5 |
| 20260901200032 | 35 | 28 | 4.8 | 8.0 | 0.00 | 0.00 | 0.00 | 47 | 1017.6 |
| 20260901195944 | 36 | 47 | 3.2 | 8.0 | 0.00 | 0.00 | 0.00 | 46 | 1017.6 |
| 20260901195831 | 36 | 40 | 1.6 | 8.0 | 0.00 | 0.00 | 0.00 | 46 | 1017.7 |
| 20260901195717 | 36 | 88 | 1.6 | 8.0 | 0.00 | 0.00 | 0.00 | 46 | 1017.7 |
| 20260901195623 | 36 | 88 | 1.6 | 8.0 | 0.00 | 0.00 | 0.00 | 47 | 1017.7 |
| 20260901195529 | 36 | 360 | 3.2 | 8.0 | 0.00 | 0.00 | 0.00 | 49 | 1017.7 |
| 20260901195417 | 35 | 31 | 1.6 | 8.0 | 0.00 | 0.00 | 0.00 | 47 | 1017.7 |
| 20260901195329 | 35 | 329 | 1.6 | 9.7 | 0.00 | 0.00 | 0.00 | 47 | 1017.7 |
| 20260901195235 | 35 | 315 | 1.6 | 12.9 | 0.00 | 0.00 | 0.00 | 48 | 1017.7 |
| 20260901195122 | 35 | 226 | 1.6 | 12.9 | 0.00 | 0.00 | 0.00 | 47 | 1017.7 |
| 20260901195030 | 35 | 267 | 3.2 | 12.9 | 0.00 | 0.00 | 0.00 | 48 | 1017.8 |
| 20260901194939 | 35 | 277 | 1.6 | 12.9 | 0.00 | 0.00 | 0.00 | 47 | 1017.7 |
| 20260901194905 | 35 | 35 | 3.2 | 12.9 | 0.00 | 0.00 | 0.00 | 47 | 1017.8 |
| 20260901194818 | 35 | 350 | 4.8 | 12.9 | 0.00 | 0.00 | 0.00 | 50 | 1017.8 |
| 20260901194530 | 35 | 311 | 6.4 | 12.9 | 0.00 | 0.00 | 0.00 | 50 | 1017.8 |
| 20260901194417 | 35 | 329 | 8.0 | 12.9 | 0.00 | 0.00 | 0.00 | 50 | 1017.9 |
| 20260901194323 | 35 | 309 | 4.8 | 9.7 | 0.00 | 0.00 | 0.00 | 49 | 1017.9 |
| 20260901194250 | 35 | 5 | 3.2 | 9.7 | 0.00 | 0.00 | 0.00 | 48 | 1017.9 |
| 20260901194121 | 35 | 338 | 3.2 | 8.0 | 0.00 | 0.00 | 0.00 | 47 | 1017.9 |
| 20260901194048 | 35 | 338 | 4.8 | 8.0 | 0.00 | 0.00 | 0.00 | 47 | 1017.9 |
| 20260901193935 | 35 | 23 | 6.4 | 8.0 | 0.00 | 0.00 | 0.00 | 48 | 1017.9 |
| 20260901193841 | 35 | 295 | 4.8 | 9.7 | 0.00 | 0.00 | 0.00 | 48 | 1017.9 |
| 20260901193727 | 35 | 296 | 3.2 | 6.4 | 0.00 | 0.00 | 0.00 | 48 | 1017.9 |
| 20260901193634 | 35 | 203 | 3.2 | 6.4 | 0.00 | 0.00 | 0.00 | 48 | 1018.0 |
| 20260901193524 | 35 | 317 | 3.2 | 8.0 | 0.00 | 0.00 | 0.00 | 49 | 1017.9 |
| 20260901193430 | 35 | 286 | 3.2 | 11.3 | 0.00 | 0.00 | 0.00 | 51 | 1017.9 |
| 20260901193357 | 35 | 274 | 3.2 | 12.9 | 0.00 | 0.00 | 0.00 | 50 | 1017.9 |
| 20260901193306 | 35 | 277 | 1.6 | 17.7 | 0.00 | 0.00 | 0.00 | 50 | 1017.9 |
| 20260901193019 | 35 | 107 | 1.6 | 17.7 | 0.00 | 0.00 | 0.00 | 50 | 1018.0 |
| 20260901192931 | 35 | 140 | 1.6 | 17.7 | 0.00 | 0.00 | 0.00 | 50 | 1018.1 |
| 20260901192817 | 35 | 162 | 4.8 | 17.7 | 0.00 | 0.00 | 0.00 | 49 | 1018.1 |
| 20260901192724 | 35 | 127 | 8.0 | 17.7 | 0.00 | 0.00 | 0.00 | 48 | 1018.1 |
| 20260901192632 | 35 | 128 | 9.7 | 17.7 | 0.00 | 0.00 | 0.00 | 50 | 1018.1 |
| 20260901192519 | 35 | 117 | 12.9 | 17.7 | 0.00 | 0.00 | 0.00 | 49 | 1018.1 |
| 20260901192426 | 35 | 110 | 14.5 | 17.7 | 0.00 | 0.00 | 0.00 | 50 | 1018.0 |
| 20260901192318 | 35 | 117 | 11.3 | 17.7 | 0.00 | 0.00 | 0.00 | 50 | 1018.1 |
| 20260901192223 | 35 | 133 | 11.3 | 17.7 | 0.00 | 0.00 | 0.00 | 49 | 1018.0 |
| 20260901192131 | 35 | 171 | 11.3 | 17.7 | 0.00 | 0.00 | 0.00 | 50 | 1018.1 |
| 20260901192017 | 35 | 116 | 6.4 | 17.7 | 0.00 | 0.00 | 0.00 | 51 | 1018.0 |
| 20260901191924 | 35 | 112 | 3.2 | 16.1 | 0.00 | 0.00 | 0.00 | 50 | 1018.1 |
| 20260901191836 | 35 | 105 | 3.2 | 16.1 | 0.00 | 0.00 | 0.00 | 48 | 1018.1 |
| 20260901191805 | 35 | 132 | 1.6 | 16.1 | 0.00 | 0.00 | 0.00 | 49 | 1018.1 |
| 20260901191516 | 35 | 355 | 4.8 | 16.1 | 0.00 | 0.00 | 0.00 | 50 | 1018.1 |
| 20260901191424 | 35 | 26 | 4.8 | 16.1 | 0.00 | 0.00 | 0.00 | 50 | 1018.1 |
| 20260901191330 | 35 | 338 | 4.8 | 16.1 | 0.00 | 0.00 | 0.00 | 48 | 1018.1 |
| 20260901191222 | 35 | 346 | 6.4 | 16.1 | 0.00 | 0.00 | 0.00 | 48 | 1018.2 |
| 20260901191148 | 35 | 334 | 8.0 | 16.1 | 0.00 | 0.00 | 0.00 | 50 | 1018.2 |
| 20260901191033 | 35 | 355 | 6.4 | 11.3 | 0.00 | 0.00 | 0.00 | 49 | 1018.2 |
| 20260901190942 | 35 | 83 | 6.4 | 11.3 | 0.00 | 0.00 | 0.00 | 49 | 1018.3 |
| 20260901190828 | 35 | 5 | 4.8 | 11.3 | 0.00 | 0.00 | 0.00 | 49 | 1018.3 |
| 20260901190734 | 35 | 44 | 3.2 | 11.3 | 0.00 | 0.00 | 0.00 | 49 | 1018.3 |
| 20260901190626 | 35 | 148 | 4.8 | 11.3 | 0.00 | 0.00 | 0.00 | 49 | 1018.2 |
| 20260901190533 | 35 | 56 | 6.4 | 11.3 | 0.00 | 0.00 | 0.00 | 50 | 1018.4 |
| 20260901190420 | 35 | 75 | 4.8 | 12.9 | 0.00 | 0.00 | 0.00 | 50 | 1018.3 |
| 20260901190347 | 35 | 61 | 3.2 | 12.9 | 0.00 | 0.00 | 0.00 | 50 | 1018.3 |
| 20260901190317 | 35 | 105 | 3.2 | 12.9 | 0.00 | 0.00 | 0.00 | 49 | 1018.3 |
| 20260901190054 | 35 | 124 | 4.8 | 12.9 | 0.00 | 0.00 | 0.00 | 47 | 1018.4 |
| 20260901185919 | 35 | 132 | 4.8 | 12.9 | 0.00 | 0.00 | 0.00 | 49 | 1018.4 |
| 20260901185826 | 35 | 39 | 4.8 | 12.9 | 0.00 | 0.00 | 0.00 | 49 | 1018.4 |
| 20260901185733 | 35 | 69 | 8.0 | 12.9 | 0.00 | 0.00 | 0.00 | 52 | 1018.4 |
| 20260901185619 | 35 | 138 | 4.8 | 12.9 | 0.00 | 0.00 | 0.00 | 50 | 1018.4 |
| 20260901185526 | 35 | 148 | 3.2 | 12.9 | 0.00 | 0.00 | 0.00 | 49 | 1018.3 |
| 20260901185417 | 35 | 103 | 6.4 | 12.9 | 0.00 | 0.00 | 0.00 | 52 | 1018.4 |
| 20260901185323 | 35 | 112 | 8.0 | 12.9 | 0.00 | 0.00 | 0.00 | 48 | 1018.4 |
| 20260901185230 | 35 | 131 | 6.4 | 12.9 | 0.00 | 0.00 | 0.00 | 47 | 1018.5 |
| 20260901185117 | 35 | 103 | 6.4 | 11.3 | 0.00 | 0.00 | 0.00 | 49 | 1018.5 |
| 20260901185025 | 35 | 87 | 4.8 | 11.3 | 0.00 | 0.00 | 0.00 | 50 | 1018.4 |
| 20260901184952 | 35 | 44 | 4.8 | 11.3 | 0.00 | 0.00 | 0.00 | 49 | 1018.5 |
| 20260901184842 | 35 | 76 | 4.8 | 11.3 | 0.00 | 0.00 | 0.00 | 48 | 1018.5 |
| 20260901184750 | 35 | 70 | 4.8 | 12.9 | 0.00 | 0.00 | 0.00 | 51 | 1018.5 |
| 20260901184522 | 35 | 177 | 4.8 | 12.9 | 0.00 | 0.00 | 0.00 | 51 | 1018.5 |
| 20260901184429 | 35 | 113 | 6.4 | 12.9 | 0.00 | 0.00 | 0.00 | 47 | 1018.5 |
| 20260901184320 | 35 | 186 | 6.4 | 12.9 | 0.00 | 0.00 | 0.00 | 50 | 1018.5 |
| 20260901184227 | 35 | 161 | 6.4 | 12.9 | 0.00 | 0.00 | 0.00 | 52 | 1018.6 |
| 20260901184133 | 35 | 94 | 4.8 | 11.3 | 0.00 | 0.00 | 0.00 | 49 | 1018.6 |
| 20260901184020 | 35 | 142 | 4.8 | 11.3 | 0.00 | 0.00 | 0.00 | 52 | 1018.6 |
| 20260901183949 | 35 | 163 | 4.8 | 11.3 | 0.00 | 0.00 | 0.00 | 52 | 1018.6 |
| 20260901183833 | 34 | 130 | 3.2 | 11.3 | 0.00 | 0.00 | 0.00 | 51 | 1018.6 |
| 20260901183726 | 34 | 159 | 1.6 | 6.4 | 0.00 | 0.00 | 0.00 | 50 | 1018.6 |
| 20260901183634 | 34 | 258 | 1.6 | 6.4 | 0.00 | 0.00 | 0.00 | 50 | 1018.6 |
| 20260901183520 | 34 | 355 | 3.2 | 6.4 | 0.00 | 0.00 | 0.00 | 50 | 1018.6 |
| 20260901183429 | 34 | 55 | 1.6 | 6.4 | 0.00 | 0.00 | 0.00 | 51 | 1018.7 |
| 20260901183336 | 34 | 80 | 1.6 | 6.4 | 0.00 | 0.00 | 0.00 | 52 | 1018.7 |
| 20260901183309 | 34 | 80 | 1.6 | 6.4 | 0.00 | 0.00 | 0.00 | 50 | 1018.7 |
| 20260901183023 | 34 | 158 | 1.6 | 9.7 | 0.00 | 0.00 | 0.00 | 50 | 1018.7 |
| 20260901182930 | 34 | 158 | 3.2 | 9.7 | 0.00 | 0.00 | 0.00 | 49 | 1018.7 |
| 20260901182816 | 34 | 118 | 3.2 | 9.7 | 0.00 | 0.00 | 0.00 | 51 | 1018.8 |
| 20260901182722 | 34 | 94 | 1.6 | 9.7 | 0.00 | 0.00 | 0.00 | 49 | 1018.7 |
| 20260901182648 | 34 | 132 | 1.6 | 9.7 | 0.00 | 0.00 | 0.00 | 50 | 1018.8 |
| 20260901182539 | 34 | 84 | 3.2 | 9.7 | 0.00 | 0.00 | 0.00 | 49 | 1018.8 |
| 20260901182425 | 34 | 61 | 3.2 | 9.7 | 0.00 | 0.00 | 0.00 | 49 | 1018.8 |
| 20260901182353 | 34 | 45 | 3.2 | 9.7 | 0.00 | 0.00 | 0.00 | 51 | 1018.8 |
| 20260901182219 | 34 | 44 | 4.8 | 9.7 | 0.00 | 0.00 | 0.00 | 51 | 1018.9 |
| 20260901182126 | 34 | 30 | 1.6 | 9.7 | 0.00 | 0.00 | 0.00 | 53 | 1018.9 |
| 20260901182053 | 34 | 122 | 1.6 | 9.7 | 0.00 | 0.00 | 0.00 | 50 | 1018.9 |
| 20260901181923 | 34 | 128 | 3.2 | 9.7 | 0.00 | 0.00 | 0.00 | 52 | 1018.9 |
| 20260901181831 | 34 | 140 | 3.2 | 12.9 | 0.00 | 0.00 | 0.00 | 51 | 1018.9 |
| 20260901181802 | 34 | 139 | 4.8 | 12.9 | 0.00 | 0.00 | 0.00 | 51 | 1018.9 |
| 20260901181535 | 34 | 88 | 4.8 | 12.9 | 0.00 | 0.00 | 0.00 | 52 | 1018.9 |
| 20260901181424 | 34 | 80 | 4.8 | 12.9 | 0.00 | 0.00 | 0.00 | 53 | 1018.9 |
| 20260901181334 | 34 | 43 | 6.4 | 12.9 | 0.00 | 0.00 | 0.00 | 51 | 1018.9 |
| 20260901181220 | 34 | 16 | 6.4 | 12.9 | 0.00 | 0.00 | 0.00 | 52 | 1019.0 |
| 20260901181127 | 34 | 30 | 6.4 | 12.9 | 0.00 | 0.00 | 0.00 | 52 | 1018.9 |
| 20260901181035 | 34 | 38 | 4.8 | 12.9 | 0.00 | 0.00 | 0.00 | 51 | 1018.9 |
| 20260901180923 | 34 | 84 | 4.8 | 11.3 | 0.00 | 0.00 | 0.00 | 52 | 1018.9 |
| 20260901180849 | 34 | 132 | 3.2 | 11.3 | 0.00 | 0.00 | 0.00 | 54 | 1018.9 |
| 20260901180718 | 34 | 108 | 1.6 | 9.7 | 0.00 | 0.00 | 0.00 | 50 | 1019.0 |
| 20260901180626 | 33 | 222 | 4.8 | 9.7 | 0.00 | 0.00 | 0.00 | 50 | 1019.0 |
| 20260901180533 | 33 | 205 | 4.8 | 12.9 | 0.00 | 0.00 | 0.00 | 50 | 1019.1 |
| 20260901180419 | 33 | 171 | 4.8 | 12.9 | 0.00 | 0.00 | 0.00 | 52 | 1018.9 |
| 20260901180326 | 33 | 157 | 4.8 | 12.9 | 0.00 | 0.00 | 0.00 | 50 | 1019.0 |
| 20260901180301 | 33 | 89 | 4.8 | 12.9 | 0.00 | 0.00 | 0.00 | 50 | 1019.0 |
| 20260901180034 | 33 | 148 | 4.8 | 12.9 | 0.00 | 0.00 | 0.00 | 51 | 1019.1 |
| 20260901175922 | 33 | 188 | 6.4 | 12.9 | 0.00 | 0.00 | 0.00 | 52 | 1019.1 |
| 20260901175829 | 34 | 120 | 8.0 | 12.9 | 0.00 | 0.00 | 0.00 | 53 | 1019.1 |
| 20260901175735 | 34 | 150 | 8.0 | 12.9 | 0.00 | 0.00 | 0.00 | 51 | 1019.1 |
| 20260901175627 | 34 | 150 | 6.4 | 11.3 | 0.00 | 0.00 | 0.00 | 52 | 1019.0 |
| 20260901175532 | 34 | 147 | 4.8 | 11.3 | 0.00 | 0.00 | 0.00 | 52 | 1019.0 |
| 20260901175419 | 34 | 137 | 4.8 | 11.3 | 0.00 | 0.00 | 0.00 | 52 | 1019.1 |
| 20260901175326 | 34 | 144 | 4.8 | 9.7 | 0.00 | 0.00 | 0.00 | 55 | 1019.0 |
| 20260901175232 | 34 | 157 | 3.2 | 9.7 | 0.00 | 0.00 | 0.00 | 52 | 1019.0 |
| 20260901175124 | 34 | 22 | 4.8 | 9.7 | 0.00 | 0.00 | 0.00 | 51 | 1019.1 |
| 20260901175032 | 34 | 72 | 6.4 | 9.7 | 0.00 | 0.00 | 0.00 | 53 | 1019.1 |
| 20260901174919 | 34 | 49 | 4.8 | 9.7 | 0.00 | 0.00 | 0.00 | 52 | 1019.1 |
| 20260901174846 | 34 | 65 | 4.8 | 9.7 | 0.00 | 0.00 | 0.00 | 52 | 1019.2 |
| 20260901174756 | 34 | 113 | 4.8 | 9.7 | 0.00 | 0.00 | 0.00 | 52 | 1019.2 |
| 20260901174534 | 34 | 92 | 6.4 | 11.3 | 0.00 | 0.00 | 0.00 | 55 | 1019.1 |
| 20260901174421 | 34 | 36 | 6.4 | 11.3 | 0.00 | 0.00 | 0.00 | 54 | 1019.2 |
| 20260901174348 | 34 | 136 | 6.4 | 9.7 | 0.00 | 0.00 | 0.00 | 56 | 1019.2 |
| 20260901174234 | 34 | 138 | 6.4 | 9.7 | 0.00 | 0.00 | 0.00 | 56 | 1019.2 |
| 20260901174121 | 34 | 148 | 3.2 | 9.7 | 0.00 | 0.00 | 0.00 | 55 | 1019.2 |
| 20260901174028 | 34 | 109 | 1.6 | 9.7 | 0.00 | 0.00 | 0.00 | 53 | 1019.2 |
| 20260901173918 | 34 | 28 | 3.2 | 9.7 | 0.00 | 0.00 | 0.00 | 56 | 1019.2 |
| 20260901173824 | 34 | 23 | 3.2 | 9.7 | 0.00 | 0.00 | 0.00 | 57 | 1019.3 |
| 20260901173731 | 34 | 39 | 3.2 | 8.0 | 0.00 | 0.00 | 0.00 | 56 | 1019.2 |
| 20260901173617 | 34 | 58 | 4.8 | 8.0 | 0.00 | 0.00 | 0.00 | 59 | 1019.2 |
| 20260901173546 | 34 | 19 | 3.2 | 8.0 | 0.00 | 0.00 | 0.00 | 57 | 1019.3 |
| 20260901173432 | 34 | 143 | 3.2 | 8.0 | 0.00 | 0.00 | 0.00 | 55 | 1019.2 |
| 20260901173318 | 33 | 355 | 3.2 | 8.0 | 0.00 | 0.00 | 0.00 | 54 | 1019.3 |
| 20260901173254 | 33 | 355 | 3.2 | 8.0 | 0.00 | 0.00 | 0.00 | 54 | 1019.3 |
| 20260901173026 | 33 | 5 | 0.0 | 4.8 | 0.00 | 0.00 | 0.00 | 56 | 1019.2 |
| 20260901172954 | 33 | 5 | 1.6 | 4.8 | 0.00 | 0.00 | 0.00 | 55 | 1019.2 |
| 20260901172819 | 33 | 5 | 1.6 | 6.4 | 0.00 | 0.00 | 0.00 | 55 | 1019.3 |
| 20260901172726 | 33 | 302 | 1.6 | 6.4 | 0.00 | 0.00 | 0.00 | 56 | 1019.2 |
| 20260901172616 | 33 | 237 | 3.2 | 6.4 | 0.00 | 0.00 | 0.00 | 57 | 1019.2 |
| 20260901172523 | 33 | 257 | 3.2 | 6.4 | 0.00 | 0.00 | 0.00 | 56 | 1019.3 |
| 20260901172430 | 33 | 271 | 3.2 | 6.4 | 0.00 | 0.00 | 0.00 | 56 | 1019.3 |
| 20260901172316 | 33 | 281 | 3.2 | 6.4 | 0.00 | 0.00 | 0.00 | 55 | 1019.4 |
| 20260901172222 | 33 | 281 | 3.2 | 6.4 | 0.00 | 0.00 | 0.00 | 56 | 1019.3 |
| 20260901172134 | 33 | 275 | 3.2 | 8.0 | 0.00 | 0.00 | 0.00 | 56 | 1019.4 |
| 20260901172022 | 33 | 244 | 3.2 | 8.0 | 0.00 | 0.00 | 0.00 | 57 | 1019.3 |
| 20260901171948 | 33 | 194 | 3.2 | 8.0 | 0.00 | 0.00 | 0.00 | 59 | 1019.4 |
| 20260901171836 | 33 | 186 | 3.2 | 8.0 | 0.00 | 0.00 | 0.00 | 57 | 1019.4 |
| 20260901171806 | 33 | 196 | 3.2 | 8.0 | 0.00 | 0.00 | 0.00 | 57 | 1019.4 |
| 20260901171522 | 33 | 5 | 4.8 | 8.0 | 0.00 | 0.00 | 0.00 | 59 | 1019.5 |
| 20260901171431 | 33 | 17 | 4.8 | 8.0 | 0.00 | 0.00 | 0.00 | 58 | 1019.4 |
| 20260901171317 | 33 | 345 | 4.8 | 8.0 | 0.00 | 0.00 | 0.00 | 58 | 1019.5 |
| 20260901171243 | 32 | 340 | 4.8 | 8.0 | 0.00 | 0.00 | 0.00 | 58 | 1019.5 |
| 20260901171130 | 32 | 18 | 4.8 | 8.0 | 0.00 | 0.00 | 0.00 | 59 | 1019.5 |
| 20260901171016 | 32 | 5 | 6.4 | 8.0 | 0.00 | 0.00 | 0.00 | 60 | 1019.5 |
| 20260901170929 | 32 | 17 | 4.8 | 8.0 | 0.00 | 0.00 | 0.00 | 60 | 1019.5 |
| 20260901170856 | 32 | 11 | 4.8 | 8.0 | 0.00 | 0.00 | 0.00 | 58 | 1019.5 |
| 20260901170742 | 32 | 355 | 4.8 | 8.0 | 0.00 | 0.00 | 0.00 | 59 | 1019.6 |
| 20260901170626 | 32 | 336 | 4.8 | 8.0 | 0.00 | 0.00 | 0.00 | 59 | 1019.5 |
| 20260901170555 | 32 | 329 | 4.8 | 8.0 | 0.00 | 0.00 | 0.00 | 58 | 1019.5 |
| 20260901170420 | 32 | 317 | 4.8 | 8.0 | 0.00 | 0.00 | 0.00 | 58 | 1019.6 |
| 20260901170348 | 32 | 321 | 4.8 | 8.0 | 0.00 | 0.00 | 0.00 | 59 | 1019.6 |
| 20260901170301 | 32 | 333 | 4.8 | 8.0 | 0.00 | 0.00 | 0.00 | 59 | 1019.6 |
| 20260901170035 | 32 | 346 | 4.8 | 8.0 | 0.00 | 0.00 | 0.00 | 59 | 1019.5 |
| 20260901165922 | 32 | 355 | 4.8 | 8.0 | 0.00 | 0.00 | 0.00 | 58 | 1019.6 |
| 20260901165851 | 32 | 360 | 4.8 | 8.0 | 0.00 | 0.00 | 0.00 | 59 | 1019.7 |
| 20260901165716 | 32 | 348 | 4.8 | 8.0 | 0.00 | 0.00 | 0.00 | 59 | 1019.6 |
| 20260901165627 | 32 | 331 | 4.8 | 8.0 | 0.00 | 0.00 | 0.00 | 59 | 1019.6 |
| 20260901165534 | 32 | 355 | 3.2 | 8.0 | 0.00 | 0.00 | 0.00 | 58 | 1019.6 |
| 20260901165420 | 32 | 297 | 3.2 | 8.0 | 0.00 | 0.00 | 0.00 | 58 | 1019.6 |
| 20260901165346 | 32 | 48 | 4.8 | 8.0 | 0.00 | 0.00 | 0.00 | 57 | 1019.7 |
| 20260901165231 | 32 | 15 | 3.2 | 8.0 | 0.00 | 0.00 | 0.00 | 58 | 1019.7 |
| 20260901165117 | 32 | 355 | 1.6 | 8.0 | 0.00 | 0.00 | 0.00 | 56 | 1019.6 |
| 20260901165028 | 33 | 192 | 1.6 | 6.4 | 0.00 | 0.00 | 0.00 | 55 | 1019.7 |
| 20260901164935 | 33 | 192 | 1.6 | 6.4 | 0.00 | 0.00 | 0.00 | 55 | 1019.7 |
| 20260901164821 | 33 | 192 | 3.2 | 9.7 | 0.00 | 0.00 | 0.00 | 55 | 1019.8 |
| 20260901164752 | 33 | 192 | 3.2 | 9.7 | 0.00 | 0.00 | 0.00 | 55 | 1019.8 |
| 20260901164529 | 33 | 166 | 4.8 | 9.7 | 0.00 | 0.00 | 0.00 | 53 | 1019.7 |
| 20260901164435 | 33 | 219 | 4.8 | 9.7 | 0.00 | 0.00 | 0.00 | 53 | 1019.7 |
| 20260901164321 | 33 | 254 | 3.2 | 9.7 | 0.00 | 0.00 | 0.00 | 53 | 1019.7 |
| 20260901164228 | 33 | 239 | 3.2 | 9.7 | 0.00 | 0.00 | 0.00 | 53 | 1019.6 |
| 20260901164135 | 33 | 229 | 3.2 | 9.7 | 0.00 | 0.00 | 0.00 | 53 | 1019.6 |
| 20260901164021 | 33 | 204 | 3.2 | 9.7 | 0.00 | 0.00 | 0.00 | 57 | 1019.6 |
| 20260901163954 | 33 | 285 | 3.2 | 11.3 | 0.00 | 0.00 | 0.00 | 55 | 1019.6 |
| 20260901163819 | 33 | 241 | 4.8 | 11.3 | 0.00 | 0.00 | 0.00 | 56 | 1019.7 |
| 20260901163726 | 33 | 251 | 4.8 | 11.3 | 0.00 | 0.00 | 0.00 | 55 | 1019.6 |
| 20260901163633 | 33 | 229 | 4.8 | 11.3 | 0.00 | 0.00 | 0.00 | 55 | 1019.6 |
| 20260901163518 | 33 | 216 | 4.8 | 11.3 | 0.00 | 0.00 | 0.00 | 55 | 1019.6 |
| 20260901163427 | 33 | 223 | 4.8 | 11.3 | 0.00 | 0.00 | 0.00 | 57 | 1019.6 |
| 20260901163338 | 34 | 214 | 6.4 | 11.3 | 0.00 | 0.00 | 0.00 | 57 | 1019.6 |
| 20260901163308 | 34 | 228 | 6.4 | 11.3 | 0.00 | 0.00 | 0.00 | 57 | 1019.6 |
| 20260901163021 | 34 | 265 | 6.4 | 11.3 | 0.00 | 0.00 | 0.00 | 58 | 1019.6 |
| 20260901162929 | 33 | 277 | 4.8 | 9.7 | 0.00 | 0.00 | 0.00 | 57 | 1019.6 |
| 20260901162840 | 33 | 283 | 3.2 | 9.7 | 0.00 | 0.00 | 0.00 | 59 | 1019.6 |
| 20260901162726 | 33 | 324 | 3.2 | 9.7 | 0.00 | 0.00 | 0.00 | 58 | 1019.8 |
| 20260901162632 | 33 | 323 | 3.2 | 9.7 | 0.00 | 0.00 | 0.00 | 59 | 1019.8 |
| 20260901162517 | 33 | 333 | 3.2 | 9.7 | 0.00 | 0.00 | 0.00 | 58 | 1019.8 |
| 20260901162443 | 33 | 86 | 4.8 | 9.7 | 0.00 | 0.00 | 0.00 | 58 | 1019.7 |
| 20260901162329 | 33 | 35 | 4.8 | 9.7 | 0.00 | 0.00 | 0.00 | 58 | 1019.7 |
| 20260901162217 | 33 | 42 | 3.2 | 6.4 | 0.00 | 0.00 | 0.00 | 58 | 1019.8 |
| 20260901162130 | 33 | 23 | 4.8 | 6.4 | 0.00 | 0.00 | 0.00 | 58 | 1019.8 |
| 20260901162018 | 33 | 28 | 4.8 | 6.4 | 0.00 | 0.00 | 0.00 | 59 | 1019.9 |
| 20260901161927 | 33 | 9 | 3.2 | 6.4 | 0.00 | 0.00 | 0.00 | 59 | 1019.9 |
| 20260901161854 | 33 | 320 | 3.2 | 6.4 | 0.00 | 0.00 | 0.00 | 59 | 1019.9 |
| 20260901161825 | 33 | 304 | 1.6 | 6.4 | 0.00 | 0.00 | 0.00 | 59 | 1019.9 |
| 20260901161521 | 33 | 326 | 1.6 | 6.4 | 0.00 | 0.00 | 0.00 | 57 | 1019.9 |
| 20260901161429 | 33 | 326 | 1.6 | 6.4 | 0.00 | 0.00 | 0.00 | 59 | 1019.9 |
| 20260901161337 | 33 | 325 | 3.2 | 6.4 | 0.00 | 0.00 | 0.00 | 58 | 1019.9 |
| 20260901161223 | 33 | 325 | 3.2 | 8.0 | 0.00 | 0.00 | 0.00 | 58 | 1019.8 |
| 20260901161129 | 33 | 250 | 1.6 | 8.0 | 0.00 | 0.00 | 0.00 | 60 | 1019.9 |
| 20260901161055 | 33 | 279 | 1.6 | 8.0 | 0.00 | 0.00 | 0.00 | 59 | 1019.9 |
| 20260901160924 | 33 | 146 | 1.6 | 8.0 | 0.00 | 0.00 | 0.00 | 58 | 1019.9 |
| 20260901160831 | 33 | 269 | 1.6 | 8.0 | 0.00 | 0.00 | 0.00 | 60 | 1019.9 |
| 20260901160719 | 33 | 271 | 3.2 | 8.0 | 0.00 | 0.00 | 0.00 | 60 | 1019.9 |
| 20260901160624 | 33 | 263 | 4.8 | 8.0 | 0.00 | 0.00 | 0.00 | 61 | 1019.9 |
| 20260901160533 | 33 | 232 | 4.8 | 8.0 | 0.00 | 0.00 | 0.00 | 61 | 1019.9 |
| 20260901160440 | 33 | 262 | 4.8 | 8.0 | 0.00 | 0.00 | 0.00 | 61 | 1019.9 |
| 20260901160411 | 33 | 257 | 4.8 | 9.7 | 0.00 | 0.00 | 0.00 | 61 | 1019.9 |
| 20260901160320 | 33 | 314 | 3.2 | 6.4 | 0.00 | 0.00 | 0.00 | 61 | 1019.9 |
| 20260901160052 | 33 | 348 | 4.8 | 6.4 | 0.00 | 0.00 | 0.00 | 62 | 1020.0 |
| 20260901155918 | 33 | 5 | 3.2 | 6.4 | 0.00 | 0.00 | 0.00 | 59 | 1020.0 |
| 20260901155844 | 33 | 355 | 1.6 | 6.4 | 0.00 | 0.00 | 0.00 | 61 | 1020.0 |
| 20260901155730 | 33 | 86 | 3.2 | 6.4 | 0.00 | 0.00 | 0.00 | 60 | 1020.0 |
| 20260901155622 | 33 | 115 | 3.2 | 6.4 | 0.00 | 0.00 | 0.00 | 59 | 1020.1 |
| 20260901155528 | 33 | 115 | 1.6 | 6.4 | 0.00 | 0.00 | 0.00 | 60 | 1020.1 |
| 20260901155434 | 33 | 148 | 1.6 | 6.4 | 0.00 | 0.00 | 0.00 | 60 | 1020.1 |
| 20260901155321 | 33 | 236 | 0.0 | 6.4 | 0.00 | 0.00 | 0.00 | 60 | 1020.1 |
| 20260901155229 | 33 | 236 | 1.6 | 6.4 | 0.00 | 0.00 | 0.00 | 60 | 1020.1 |
| 20260901155120 | 33 | 236 | 1.6 | 6.4 | 0.00 | 0.00 | 0.00 | 60 | 1020.1 |
| 20260901155048 | 33 | 236 | 3.2 | 6.4 | 0.00 | 0.00 | 0.00 | 62 | 1020.1 |
| 20260901154933 | 32 | 281 | 3.2 | 6.4 | 0.00 | 0.00 | 0.00 | 63 | 1020.1 |
| 20260901154900 | 32 | 236 | 3.2 | 6.4 | 0.00 | 0.00 | 0.00 | 61 | 1020.1 |
| 20260901154830 | 32 | 225 | 1.6 | 6.4 | 0.00 | 0.00 | 0.00 | 62 | 1020.2 |
| 20260901154521 | 32 | 303 | 3.2 | 6.4 | 0.00 | 0.00 | 0.00 | 61 | 1020.2 |
| 20260901154433 | 32 | 303 | 3.2 | 11.3 | 0.00 | 0.00 | 0.00 | 63 | 1020.1 |
| 20260901154319 | 32 | 211 | 3.2 | 11.3 | 0.00 | 0.00 | 0.00 | 63 | 1020.1 |
| 20260901154226 | 32 | 186 | 4.8 | 11.3 | 0.00 | 0.00 | 0.00 | 63 | 1020.2 |
| 20260901154132 | 32 | 223 | 3.2 | 11.3 | 0.00 | 0.00 | 0.00 | 62 | 1020.1 |
| 20260901154018 | 32 | 235 | 3.2 | 11.3 | 0.00 | 0.00 | 0.00 | 62 | 1020.2 |
| 20260901153929 | 32 | 173 | 3.2 | 11.3 | 0.00 | 0.00 | 0.00 | 61 | 1020.2 |
| 20260901153837 | 32 | 228 | 3.2 | 11.3 | 0.00 | 0.00 | 0.00 | 62 | 1020.2 |
| 20260901153743 | 32 | 223 | 3.2 | 11.3 | 0.00 | 0.00 | 0.00 | 61 | 1020.1 |
| 20260901153629 | 32 | 223 | 3.2 | 11.3 | 0.00 | 0.00 | 0.00 | 61 | 1020.2 |
| 20260901153535 | 32 | 236 | 4.8 | 11.3 | 0.00 | 0.00 | 0.00 | 61 | 1020.2 |
| 20260901153420 | 32 | 309 | 4.8 | 11.3 | 0.00 | 0.00 | 0.00 | 61 | 1020.2 |
| 20260901153327 | 32 | 270 | 4.8 | 11.3 | 0.00 | 0.00 | 0.00 | 62 | 1020.2 |
| 20260901153301 | 32 | 251 | 4.8 | 11.3 | 0.00 | 0.00 | 0.00 | 62 | 1020.2 |
| 20260901153033 | 32 | 242 | 4.8 | 11.3 | 0.00 | 0.00 | 0.00 | 62 | 1020.1 |
| 20260901152919 | 32 | 280 | 4.8 | 11.3 | 0.00 | 0.00 | 0.00 | 63 | 1020.1 |
| 20260901152825 | 32 | 179 | 6.4 | 11.3 | 0.00 | 0.00 | 0.00 | 62 | 1020.2 |
| 20260901152753 | 32 | 167 | 4.8 | 11.3 | 0.00 | 0.00 | 0.00 | 63 | 1020.2 |
| 20260901152620 | 32 | 155 | 4.8 | 6.4 | 0.00 | 0.00 | 0.00 | 64 | 1020.2 |
| 20260901152548 | 32 | 122 | 3.2 | 6.4 | 0.00 | 0.00 | 0.00 | 62 | 1020.2 |
| 20260901152454 | 32 | 130 | 3.2 | 6.4 | 0.00 | 0.00 | 0.00 | 62 | 1020.2 |
| 20260901152319 | 32 | 275 | 3.2 | 6.4 | 0.00 | 0.00 | 0.00 | 63 | 1020.2 |
| 20260901152225 | 32 | 302 | 3.2 | 6.4 | 0.00 | 0.00 | 0.00 | 64 | 1020.2 |
| 20260901152133 | 32 | 312 | 1.6 | 6.4 | 0.00 | 0.00 | 0.00 | 63 | 1020.2 |
| 20260901152018 | 32 | 314 | 3.2 | 6.4 | 0.00 | 0.00 | 0.00 | 63 | 1020.2 |
| 20260901151930 | 32 | 314 | 3.2 | 6.4 | 0.00 | 0.00 | 0.00 | 64 | 1020.1 |
| 20260901151859 | 32 | 293 | 3.2 | 6.4 | 0.00 | 0.00 | 0.00 | 63 | 1020.1 |
| 20260901151809 | 32 | 294 | 3.2 | 6.4 | 0.00 | 0.00 | 0.00 | 64 | 1020.1 |
| 20260901151521 | 32 | 338 | 3.2 | 6.4 | 0.00 | 0.00 | 0.00 | 64 | 1020.2 |
| 20260901151428 | 32 | 336 | 3.2 | 6.4 | 0.00 | 0.00 | 0.00 | 64 | 1020.2 |
| 20260901151339 | 32 | 296 | 1.6 | 6.4 | 0.00 | 0.00 | 0.00 | 63 | 1020.2 |
| 20260901151225 | 32 | 200 | 1.6 | 6.4 | 0.00 | 0.00 | 0.00 | 63 | 1020.2 |
| 20260901151153 | 32 | 200 | 3.2 | 6.4 | 0.00 | 0.00 | 0.00 | 64 | 1020.2 |
| 20260901151038 | 32 | 180 | 3.2 | 12.9 | 0.00 | 0.00 | 0.00 | 64 | 1020.2 |
| 20260901150923 | 32 | 220 | 1.6 | 12.9 | 0.00 | 0.00 | 0.00 | 64 | 1020.2 |
| 20260901150830 | 32 | 227 | 1.6 | 12.9 | 0.00 | 0.00 | 0.00 | 64 | 1020.3 |
| 20260901150721 | 32 | 227 | 3.2 | 12.9 | 0.00 | 0.00 | 0.00 | 64 | 1020.3 |
| 20260901150628 | 32 | 281 | 3.2 | 12.9 | 0.00 | 0.00 | 0.00 | 63 | 1020.2 |
| 20260901150535 | 32 | 209 | 3.2 | 12.9 | 0.00 | 0.00 | 0.00 | 65 | 1020.2 |
| 20260901150422 | 32 | 209 | 6.4 | 12.9 | 0.00 | 0.00 | 0.00 | 64 | 1020.1 |
| 20260901150329 | 32 | 264 | 6.4 | 12.9 | 0.00 | 0.00 | 0.00 | 65 | 1020.0 |
| 20260901150303 | 32 | 232 | 6.4 | 14.5 | 0.00 | 0.00 | 0.00 | 65 | 1020.0 |
| 20260901150035 | 32 | 142 | 3.2 | 8.0 | 0.00 | 0.00 | 0.00 | 65 | 1020.1 |
| 20260901145923 | 32 | 325 | 1.6 | 8.0 | 0.00 | 0.00 | 0.00 | 64 | 1020.1 |
| 20260901145830 | 32 | 224 | 1.6 | 8.0 | 0.00 | 0.00 | 0.00 | 63 | 1020.1 |
| 20260901145717 | 32 | 255 | 1.6 | 8.0 | 0.00 | 0.00 | 0.00 | 63 | 1020.1 |
| 20260901145628 | 32 | 317 | 3.2 | 8.0 | 0.00 | 0.00 | 0.00 | 65 | 1020.1 |
| 20260901145516 | 32 | 188 | 4.8 | 8.0 | 0.00 | 0.00 | 0.00 | 63 | 1020.1 |
| 20260901145444 | 32 | 211 | 4.8 | 8.0 | 0.00 | 0.00 | 0.00 | 64 | 1020.0 |
| 20260901145329 | 32 | 215 | 3.2 | 8.0 | 0.00 | 0.00 | 0.00 | 65 | 1020.1 |
| 20260901145217 | 31 | 161 | 1.6 | 6.4 | 0.00 | 0.00 | 0.00 | 64 | 1020.1 |
| 20260901145144 | 31 | 207 | 1.6 | 6.4 | 0.00 | 0.00 | 0.00 | 65 | 1020.1 |
| 20260901145049 | 31 | 214 | 3.2 | 11.3 | 0.00 | 0.00 | 0.00 | 66 | 1020.1 |
| 20260901142035 | 31 | 22 | 3.2 | 6.4 | 0.00 | 0.00 | 0.00 | 69 | 1020.2 |
| 20260901141942 | 31 | 5 | 3.2 | 6.4 | 0.00 | 0.00 | 0.00 | 68 | 1020.1 |
| 20260901141912 | 31 | 17 | 3.2 | 6.4 | 0.00 | 0.00 | 0.00 | 68 | 1020.1 |
| 20260901141623 | 30 | 119 | 3.2 | 6.4 | 0.00 | 0.00 | 0.00 | 69 | 1020.3 |
| 20260901141533 | 30 | 120 | 3.2 | 6.4 | 0.00 | 0.00 | 0.00 | 69 | 1020.3 |
| 20260901141439 | 30 | 44 | 3.2 | 6.4 | 0.00 | 0.00 | 0.00 | 69 | 1020.3 |
| 20260901141325 | 30 | 76 | 3.2 | 6.4 | 0.00 | 0.00 | 0.00 | 71 | 1020.3 |
| 20260901141232 | 30 | 65 | 3.2 | 6.4 | 0.00 | 0.00 | 0.00 | 70 | 1020.3 |
| 20260901141139 | 30 | 78 | 3.2 | 4.8 | 0.00 | 0.00 | 0.00 | 71 | 1020.3 |
| 20260901141029 | 30 | 110 | 1.6 | 4.8 | 0.00 | 0.00 | 0.00 | 71 | 1020.3 |
| 20260901140936 | 30 | 61 | 0.0 | 4.8 | 0.00 | 0.00 | 0.00 | 71 | 1020.2 |
| 20260901140823 | 30 | 91 | 1.6 | 4.8 | 0.00 | 0.00 | 0.00 | 71 | 1020.2 |
| 20260901140731 | 30 | 26 | 1.6 | 4.8 | 0.00 | 0.00 | 0.00 | 71 | 1020.2 |
| 20260901140638 | 30 | 33 | 1.6 | 4.8 | 0.00 | 0.00 | 0.00 | 72 | 1020.2 |
| 20260901140525 | 30 | 33 | 1.6 | 4.8 | 0.00 | 0.00 | 0.00 | 71 | 1020.3 |
| 20260901140437 | 30 | 59 | 1.6 | 4.8 | 0.00 | 0.00 | 0.00 | 72 | 1020.2 |
| 20260901140406 | 30 | 59 | 0.0 | 4.8 | 0.00 | 0.00 | 0.00 | 71 | 1020.2 |
| 20260901140139 | 30 | 76 | 1.6 | 4.8 | 0.00 | 0.00 | 0.00 | 72 | 1020.2 |
| 20260901140045 | 30 | 76 | 1.6 | 4.8 | 0.00 | 0.00 | 0.00 | 72 | 1020.1 |
| 20260901135931 | 30 | 76 | 3.2 | 4.8 | 0.00 | 0.00 | 0.00 | 73 | 1020.1 |
| 20260901135821 | 30 | 137 | 1.6 | 4.8 | 0.00 | 0.00 | 0.00 | 74 | 1020.1 |
| 20260901135727 | 30 | 92 | 1.6 | 4.8 | 0.00 | 0.00 | 0.00 | 73 | 1020.1 |
| 20260901135635 | 30 | 149 | 1.6 | 6.4 | 0.00 | 0.00 | 0.00 | 72 | 1020.1 |
| 20260901135521 | 29 | 121 | 0.0 | 6.4 | 0.00 | 0.00 | 0.00 | 72 | 1020.1 |
| 20260901135427 | 29 | 136 | 0.0 | 6.4 | 0.00 | 0.00 | 0.00 | 72 | 1020.1 |
| 20260901135333 | 29 | 136 | 0.0 | 6.4 | 0.00 | 0.00 | 0.00 | 72 | 1020.1 |
| 20260901135224 | 29 | 136 | 1.6 | 6.4 | 0.00 | 0.00 | 0.00 | 73 | 1020.1 |
| 20260901135131 | 29 | 136 | 1.6 | 6.4 | 0.00 | 0.00 | 0.00 | 73 | 1020.0 |
| 20260901135038 | 29 | 93 | 3.2 | 6.4 | 0.00 | 0.00 | 0.00 | 73 | 1020.1 |
| 20260901134924 | 29 | 128 | 1.6 | 6.4 | 0.00 | 0.00 | 0.00 | 73 | 1020.0 |
| 20260901134858 | 29 | 94 | 1.6 | 6.4 | 0.00 | 0.00 | 0.00 | 73 | 1020.0 |
| 20260901134632 | 29 | 24 | 1.6 | 4.8 | 0.00 | 0.00 | 0.00 | 75 | 1020.1 |
| 20260901134539 | 29 | 60 | 1.6 | 4.8 | 0.00 | 0.00 | 0.00 | 75 | 1019.9 |
| 20260901134426 | 29 | 38 | 1.6 | 4.8 | 0.00 | 0.00 | 0.00 | 74 | 1019.9 |
| 20260901134332 | 29 | 38 | 1.6 | 4.8 | 0.00 | 0.00 | 0.00 | 75 | 1019.8 |
| 20260901134224 | 28 | 37 | 3.2 | 4.8 | 0.00 | 0.00 | 0.00 | 75 | 1019.9 |
| 20260901134130 | 28 | 50 | 3.2 | 4.8 | 0.00 | 0.00 | 0.00 | 74 | 1019.9 |
| 20260901134059 | 28 | 58 | 1.6 | 4.8 | 0.00 | 0.00 | 0.00 | 74 | 1019.9 |
| 20260901133927 | 28 | 59 | 0.0 | 4.8 | 0.00 | 0.00 | 0.00 | 74 | 1019.9 |
| 20260901133833 | 28 | 109 | 0.0 | 4.8 | 0.00 | 0.00 | 0.00 | 74 | 1019.9 |
| 20260901133721 | 28 | 109 | 1.6 | 4.8 | 0.00 | 0.00 | 0.00 | 74 | 1019.9 |
| 20260901133627 | 28 | 109 | 3.2 | 4.8 | 0.00 | 0.00 | 0.00 | 74 | 1019.8 |
| 20260901133538 | 28 | 109 | 3.2 | 4.8 | 0.00 | 0.00 | 0.00 | 75 | 1019.9 |
| 20260901133425 | 28 | 107 | 1.6 | 4.8 | 0.00 | 0.00 | 0.00 | 75 | 1019.9 |
| 20260901133356 | 28 | 123 | 1.6 | 4.8 | 0.00 | 0.00 | 0.00 | 75 | 1019.9 |
| 20260901133130 | 28 | 105 | 1.6 | 4.8 | 0.00 | 0.00 | 0.00 | 74 | 1019.8 |
| 20260901133022 | 28 | 85 | 1.6 | 4.8 | 0.00 | 0.00 | 0.00 | 74 | 1019.8 |
| 20260901132929 | 28 | 85 | 1.6 | 4.8 | 0.00 | 0.00 | 0.00 | 75 | 1019.9 |
| 20260901132836 | 28 | 146 | 1.6 | 4.8 | 0.00 | 0.00 | 0.00 | 75 | 1019.9 |
| 20260901132725 | 28 | 129 | 1.6 | 4.8 | 0.00 | 0.00 | 0.00 | 75 | 1019.9 |
| 20260901132633 | 28 | 129 | 3.2 | 4.8 | 0.00 | 0.00 | 0.00 | 75 | 1019.9 |
| 20260901132524 | 28 | 111 | 3.2 | 4.8 | 0.00 | 0.00 | 0.00 | 75 | 1019.9 |
| 20260901132431 | 28 | 146 | 3.2 | 4.8 | 0.00 | 0.00 | 0.00 | 75 | 1019.9 |
| 20260901132340 | 28 | 151 | 1.6 | 4.8 | 0.00 | 0.00 | 0.00 | 75 | 1019.9 |
| 20260901132228 | 28 | 142 | 0.0 | 4.8 | 0.00 | 0.00 | 0.00 | 76 | 1020.0 |
| 20260901132155 | 28 | 86 | 1.6 | 4.8 | 0.00 | 0.00 | 0.00 | 76 | 1019.9 |
| 20260901132021 | 28 | 103 | 1.6 | 4.8 | 0.00 | 0.00 | 0.00 | 76 | 1019.9 |
| 20260901131949 | 28 | 103 | 1.6 | 4.8 | 0.00 | 0.00 | 0.00 | 76 | 1020.0 |
| 20260901131902 | 28 | 111 | 0.0 | 0.0 | 0.00 | 0.00 | 0.00 | 76 | 1020.0 |
| 20260901131635 | 28 | 86 | 0.0 | 0.0 | 0.00 | 0.00 | 0.00 | 77 | 1019.8 |
| 20260901131523 | 28 | 65 | 0.0 | 0.0 | 0.00 | 0.00 | 0.00 | 77 | 1019.9 |
| 20260901131431 | 28 | 65 | 0.0 | 0.0 | 0.00 | 0.00 | 0.00 | 77 | 1019.9 |
| 20260901131321 | 28 | 78 | 0.0 | 0.0 | 0.00 | 0.00 | 0.00 | 77 | 1019.9 |
| 20260901131249 | 28 | 78 | 0.0 | 0.0 | 0.00 | 0.00 | 0.00 | 78 | 1019.9 |
| 20260901131135 | 27 | 355 | 0.0 | 0.0 | 0.00 | 0.00 | 0.00 | 78 | 1019.9 |
| 20260901131020 | 27 | 355 | 0.0 | 0.0 | 0.00 | 0.00 | 0.00 | 78 | 1019.9 |
| 20260901130927 | 27 | 355 | 0.0 | 0.0 | 0.00 | 0.00 | 0.00 | 78 | 1019.9 |
| 20260901130835 | 27 | 355 | 0.0 | 0.0 | 0.00 | 0.00 | 0.00 | 79 | 1019.9 |
| 20260901130727 | 27 | 355 | 0.0 | 0.0 | 0.00 | 0.00 | 0.00 | 79 | 1019.8 |
| 20260901130635 | 27 | 355 | 0.0 | 0.0 | 0.00 | 0.00 | 0.00 | 80 | 1019.9 |
| 20260901130543 | 27 | 355 | 0.0 | 0.0 | 0.00 | 0.00 | 0.00 | 80 | 1019.8 |
| 20260901130448 | 27 | 355 | 0.0 | 0.0 | 0.00 | 0.00 | 0.00 | 81 | 1019.8 |
| 20260901130357 | 27 | 355 | 0.0 | 0.0 | 0.00 | 0.00 | 0.00 | 81 | 1019.8 |
| 20260901130131 | 26 | 355 | 0.0 | 0.0 | 0.00 | 0.00 | 0.00 | 81 | 1019.7 |
| 20260901130022 | 26 | 355 | 0.0 | 0.0 | 0.00 | 0.00 | 0.00 | 81 | 1019.8 |
| 20260901125928 | 26 | 355 | 0.0 | 0.0 | 0.00 | 0.00 | 0.00 | 81 | 1019.7 |
| 20260901125836 | 26 | 355 | 0.0 | 0.0 | 0.00 | 0.00 | 0.00 | 82 | 1019.7 |
| 20260901125724 | 26 | 355 | 0.0 | 0.0 | 0.00 | 0.00 | 0.00 | 82 | 1019.7 |
| 20260901125631 | 26 | 355 | 0.0 | 0.0 | 0.00 | 0.00 | 0.00 | 82 | 1019.8 |
| 20260901125523 | 26 | 355 | 0.0 | 0.0 | 0.00 | 0.00 | 0.00 | 83 | 1019.6 |
| 20260901125431 | 26 | 355 | 0.0 | 0.0 | 0.00 | 0.00 | 0.00 | 83 | 1019.7 |
| 20260901125359 | 26 | 355 | 0.0 | 0.0 | 0.00 | 0.00 | 0.00 | 82 | 1019.7 |
| 20260901125224 | 26 | 355 | 0.0 | 0.0 | 0.00 | 0.00 | 0.00 | 83 | 1019.7 |
| 20260901125131 | 26 | 355 | 0.0 | 0.0 | 0.00 | 0.00 | 0.00 | 83 | 1019.8 |
| 20260901125039 | 26 | 355 | 0.0 | 0.0 | 0.00 | 0.00 | 0.00 | 84 | 1019.7 |
| 20260901125007 | 25 | 355 | 0.0 | 0.0 | 0.00 | 0.00 | 0.00 | 84 | 1019.7 |
| 20260901124922 | 25 | 355 | 0.0 | 0.0 | 0.00 | 0.00 | 0.00 | 84 | 1019.7 |
| 20260901124633 | 25 | 355 | 0.0 | 0.0 | 0.00 | 0.00 | 0.00 | 85 | 1019.7 |
| 20260901124521 | 25 | 355 | 0.0 | 0.0 | 0.00 | 0.00 | 0.00 | 85 | 1019.8 |
| 20260901124429 | 25 | 355 | 0.0 | 0.0 | 0.00 | 0.00 | 0.00 | 85 | 1019.7 |
| 20260901124321 | 25 | 355 | 0.0 | 0.0 | 0.00 | 0.00 | 0.00 | 85 | 1019.7 |
| 20260901124228 | 25 | 355 | 0.0 | 0.0 | 0.00 | 0.00 | 0.00 | 86 | 1019.8 |
| 20260901124137 | 25 | 355 | 0.0 | 0.0 | 0.00 | 0.00 | 0.00 | 86 | 1019.8 |
| 20260901124044 | 25 | 355 | 0.0 | 0.0 | 0.00 | 0.00 | 0.00 | 87 | 1019.7 |
| 20260901123930 | 25 | 355 | 0.0 | 0.0 | 0.00 | 0.00 | 0.00 | 87 | 1019.7 |
| 20260901123838 | 24 | 355 | 0.0 | 0.0 | 0.00 | 0.00 | 0.00 | 87 | 1019.8 |
| 20260901123730 | 24 | 355 | 0.0 | 0.0 | 0.00 | 0.00 | 0.00 | 88 | 1019.8 |
| 20260901123636 | 24 | 355 | 0.0 | 0.0 | 0.00 | 0.00 | 0.00 | 88 | 1019.7 |
| 20260901123524 | 24 | 355 | 0.0 | 0.0 | 0.00 | 0.00 | 0.00 | 88 | 1019.8 |
| 20260901123452 | 24 | 355 | 0.0 | 3.2 | 0.00 | 0.00 | 0.00 | 88 | 1019.7 |
| 20260901123402 | 24 | 355 | 0.0 | 3.2 | 0.00 | 0.00 | 0.00 | 89 | 1019.7 |
| 20260901123140 | 24 | 355 | 0.0 | 3.2 | 0.00 | 0.00 | 0.00 | 89 | 1019.7 |
| 20260901123026 | 24 | 355 | 0.0 | 3.2 | 0.00 | 0.00 | 0.00 | 89 | 1019.7 |
| 20260901122955 | 23 | 355 | 0.0 | 3.2 | 0.00 | 0.00 | 0.00 | 89 | 1019.7 |
| 20260901122822 | 23 | 355 | 0.0 | 3.2 | 0.00 | 0.00 | 0.00 | 89 | 1019.7 |
| 20260901122730 | 23 | 355 | 1.6 | 4.8 | 0.00 | 0.00 | 0.00 | 89 | 1019.7 |
| 20260901122621 | 23 | 355 | 1.6 | 4.8 | 0.00 | 0.00 | 0.00 | 89 | 1019.7 |
| 20260901122549 | 23 | 355 | 1.6 | 4.8 | 0.00 | 0.00 | 0.00 | 89 | 1019.7 |
| 20260901122435 | 23 | 355 | 1.6 | 4.8 | 0.00 | 0.00 | 0.00 | 89 | 1019.7 |
| 20260901122322 | 23 | 355 | 1.6 | 4.8 | 0.00 | 0.00 | 0.00 | 89 | 1019.6 |
| 20260901122230 | 23 | 355 | 1.6 | 4.8 | 0.00 | 0.00 | 0.00 | 90 | 1019.7 |
| 20260901122138 | 23 | 355 | 1.6 | 4.8 | 0.00 | 0.00 | 0.00 | 90 | 1019.7 |
| 20260901122029 | 23 | 355 | 3.2 | 4.8 | 0.00 | 0.00 | 0.00 | 90 | 1019.6 |
| 20260901121906 | 23 | 355 | 3.2 | 4.8 | 0.00 | 0.00 | 0.00 | 90 | 1019.7 |
| 20260901121700 | 23 | 355 | 3.2 | 4.8 | 0.00 | 0.00 | 0.00 | 90 | 1019.6 |
| 20260901121526 | 23 | 355 | 3.2 | 4.8 | 0.00 | 0.00 | 0.00 | 91 | 1019.5 |
| 20260901121438 | 23 | 355 | 3.2 | 4.8 | 0.00 | 0.00 | 0.00 | 91 | 1019.6 |
| 20260901121326 | 22 | 355 | 3.2 | 4.8 | 0.00 | 0.00 | 0.00 | 91 | 1019.5 |
| 20260901121233 | 22 | 355 | 3.2 | 3.2 | 0.00 | 0.00 | 0.00 | 91 | 1019.5 |
| 20260901121140 | 22 | 355 | 1.6 | 3.2 | 0.00 | 0.00 | 0.00 | 91 | 1019.5 |
| 20260901121026 | 22 | 355 | 0.0 | 3.2 | 0.00 | 0.00 | 0.00 | 92 | 1019.5 |
| 20260901120953 | 22 | 355 | 0.0 | 3.2 | 0.00 | 0.00 | 0.00 | 92 | 1019.5 |
| 20260901120821 | 22 | 355 | 0.0 | 3.2 | 0.00 | 0.00 | 0.00 | 93 | 1019.5 |
| 20260901120728 | 22 | 355 | 1.6 | 4.8 | 0.00 | 0.00 | 0.00 | 93 | 1019.5 |
| 20260901120635 | 22 | 355 | 1.6 | 4.8 | 0.00 | 0.00 | 0.00 | 93 | 1019.5 |
| 20260901120523 | 22 | 355 | 1.6 | 4.8 | 0.00 | 0.00 | 0.00 | 92 | 1019.6 |
| 20260901120405 | 22 | 355 | 1.6 | 4.8 | 0.00 | 0.00 | 0.00 | 92 | 1019.6 |
| 20260901120138 | 22 | 355 | 3.2 | 4.8 | 0.00 | 0.00 | 0.00 | 92 | 1019.5 |
| 20260901120025 | 22 | 355 | 3.2 | 4.8 | 0.00 | 0.00 | 0.00 | 92 | 1019.4 |
| 20260901115933 | 22 | 355 | 3.2 | 4.8 | 0.00 | 0.00 | 0.00 | 92 | 1019.5 |
| 20260901115820 | 22 | 355 | 3.2 | 4.8 | 0.00 | 0.00 | 0.00 | 92 | 1019.5 |
| 20260901115752 | 22 | 355 | 3.2 | 4.8 | 0.00 | 0.00 | 0.00 | 92 | 1019.4 |
| 20260901115639 | 22 | 355 | 3.2 | 4.8 | 0.00 | 0.00 | 0.00 | 92 | 1019.4 |
| 20260901115527 | 22 | 355 | 1.6 | 4.8 | 0.00 | 0.00 | 0.00 | 92 | 1019.4 |
| 20260901115434 | 22 | 355 | 1.6 | 4.8 | 0.00 | 0.00 | 0.00 | 92 | 1019.4 |
| 20260901115321 | 22 | 355 | 3.2 | 4.8 | 0.00 | 0.00 | 0.00 | 92 | 1019.4 |
| 20260901115248 | 22 | 355 | 1.6 | 4.8 | 0.00 | 0.00 | 0.00 | 92 | 1019.4 |
| 20260901115139 | 22 | 355 | 1.6 | 3.2 | 0.00 | 0.00 | 0.00 | 92 | 1019.4 |
| 20260901115024 | 22 | 355 | 1.6 | 3.2 | 0.00 | 0.00 | 0.00 | 92 | 1019.3 |
| 20260901114932 | 22 | 355 | 1.6 | 4.8 | 0.00 | 0.00 | 0.00 | 93 | 1019.4 |
| 20260901114903 | 22 | 355 | 1.6 | 4.8 | 0.00 | 0.00 | 0.00 | 93 | 1019.4 |
| 20260901114657 | 22 | 355 | 1.6 | 4.8 | 0.00 | 0.00 | 0.00 | 93 | 1019.3 |
| 20260901114529 | 22 | 355 | 1.6 | 4.8 | 0.00 | 0.00 | 0.00 | 93 | 1019.3 |
| 20260901114457 | 22 | 355 | 1.6 | 4.8 | 0.00 | 0.00 | 0.00 | 93 | 1019.4 |
| 20260901114322 | 22 | 355 | 1.6 | 4.8 | 0.00 | 0.00 | 0.00 | 93 | 1019.3 |
| 20260901114230 | 22 | 355 | 1.6 | 4.8 | 0.00 | 0.00 | 0.00 | 93 | 1019.3 |
| 20260901114138 | 22 | 355 | 1.6 | 4.8 | 0.00 | 0.00 | 0.00 | 92 | 1019.3 |
| 20260901114025 | 22 | 355 | 3.2 | 4.8 | 0.00 | 0.00 | 0.00 | 92 | 1019.3 |
| 20260901113936 | 22 | 355 | 3.2 | 4.8 | 0.00 | 0.00 | 0.00 | 92 | 1019.2 |
| 20260901113823 | 22 | 355 | 1.6 | 4.8 | 0.00 | 0.00 | 0.00 | 92 | 1019.2 |
| 20260901113730 | 22 | 355 | 3.2 | 4.8 | 0.00 | 0.00 | 0.00 | 92 | 1019.2 |
| 20260901113638 | 22 | 355 | 3.2 | 4.8 | 0.00 | 0.00 | 0.00 | 92 | 1019.2 |
| 20260901113527 | 22 | 355 | 3.2 | 4.8 | 0.00 | 0.00 | 0.00 | 92 | 1019.3 |